GEFSNE_500_meanwind_000.txt.gz
Wind_Speed
67 64 67 70 73 72 72 71 71 71 71 69 68 66 65 65 65 64 65 64 63 60 59 59 59 59 58 57 57 59 60 61 61 62 62 61 59 58
56 53 56 60 65 63 63 65 67 66 66 66 67 65 62 63 63 64 63 63 62 61 59 58 58 58 57 56 56 57 55 57 59 59 59 60 60 60
52 49 52 50 53 56 56 58 61 62 64 64 62 62 61 61 62 63 62 61 61 61 61 59 58 57 55 55 57 58 56 56 58 59 59 60 59 59
51 50 52 53 57 56 56 58 59 60 62 64 63 64 62 61 62 63 64 63 61 60 60 59 59 58 56 56 58 59 59 59 61 62 62 60 58 58
50 49 51 55 61 62 61 59 59 59 56 57 56 55 56 56 57 59 59 61 60 59 58 57 57 57 58 58 58 59 61 62 62 61 61 64 63 59
51 49 44 45 51 52 52 54 53 52 53 54 55 53 53 54 55 55 56 59 60 60 59 59 59 59 58 58 59 59 59 59 58 57 55 55 58 57
48 45 40 37 42 45 48 51 51 48 48 51 55 55 56 56 57 56 56 58 60 59 60 63 63 62 62 62 59 57 55 54 52 51 51 50 50 52
40 36 34 36 39 41 44 46 45 45 47 49 50 53 55 56 58 59 57 57 60 59 60 60 57 58 58 58 57 57 56 52 50 49 48 48 48 49
34 34 33 37 41 42 43 43 44 45 46 47 47 49 52 55 58 59 56 57 58 56 51 49 50 56 58 58 56 56 54 53 49 47 47 47 47 47
31 33 36 38 40 41 42 43 43 45 47 49 49 47 47 50 56 58 56 54 51 50 46 46 46 47 50 50 49 49 49 49 49 48 47 45 45 44
32 33 37 40 39 41 43 44 44 46 48 50 51 50 48 47 48 53 55 54 49 46 46 45 44 44 44 45 46 46 48 50 50 48 48 46 45 44
36 37 38 40 40 39 40 42 41 42 43 46 48 49 49 49 49 47 48 51 49 46 43 42 42 43 44 45 44 43 45 48 49 49 49 48 47 46
38 39 40 42 43 42 41 40 40 39 39 42 43 42 44 48 48 46 45 49 48 43 41 40 40 41 42 42 44 45 45 47 49 49 49 49 49 47
39 39 38 39 41 42 40 40 39 39 39 38 40 42 43 43 45 45 48 51 45 40 39 38 36 35 35 36 38 41 43 45 46 46 46 48 50 49
43 41 40 40 41 42 41 40 40 41 41 41 40 41 43 42 41 43 44 44 43 43 44 45 43 40 38 36 37 39 41 42 44 46 47 49 50 50
47 45 44 44 44 44 44 43 42 42 42 43 43 42 42 44 44 45 45 45 45 47 48 49 50 48 45 43 41 41 41 43 45 48 49 50 51 51
53 52 51 50 49 48 48 47 45 44 43 43 43 41 40 40 40 39 39 39 40 40 39 39 39 40 41 43 44 45 47 49 50 51 52 52 54 54
56 56 56 56 56 55 53 51 49 47 47 46 45 43 43 43 43 42 42 43 43 43 42 41 40 39 40 42 44 47 50 52 54 55 56 56 57 58
59 60 60 60 60 59 59 58 55 53 52 52 51 49 48 48 47 46 45 45 44 44 43 43 42 41 40 41 42 46 50 53 55 56 58 59 59 59
63 63 63 63 63 62 62 63 62 60 58 57 56 56 55 53 53 52 51 50 49 47 46 46 46 45 44 43 44 47 49 51 54 55 56 57 58 58
66 66 66 65 65 66 66 66 66 65 64 63 62 60 59 59 58 57 56 56 55 52 50 50 50 49 47 46 47 49 51 52 53 54 55 56 56 56
61 67 69 69 69 69 69 69 69 69 69 68 68 67 65 64 63 62 61 59 58 57 56 55 54 54 53 53 52 52 53 53 54 54 53 53 52 51
42 51 60 67 70 72 72 71 71 71 71 71 71 71 71 70 68 67 66 65 64 63 61 60 59 58 58 56 54 55 56 54 53 53 53 51 49 47

GEFSNE_500_meanwind_006.txt.gz
Wind_Speed
74 75 76 76 73 75 77 79 80 79 77 74 72 71 70 70 69 67 65 65 65 64 63 62 61 61 60 59 59 57 55 55 56 55 55 53 52 50
67 68 68 69 69 71 74 75 77 78 78 76 74 72 72 72 72 71 71 70 69 67 66 65 64 65 64 64 63 62 61 61 61 60 58 57 56 54
58 59 59 58 61 65 67 68 70 73 76 77 76 75 74 74 74 74 73 72 71 70 69 68 67 68 68 69 69 68 68 67 66 64 63 62 60 59
46 49 51 51 53 58 63 64 62 63 67 71 74 75 75 74 74 74 74 73 72 72 71 71 70 69 70 70 71 70 70 69 68 67 66 66 64 62
38 46 51 53 54 53 54 56 55 56 60 63 66 68 69 70 70 71 72 73 72 71 70 69 69 69 69 68 69 70 70 70 69 69 67 66 65 63
39 42 48 52 55 55 53 51 49 49 51 55 57 60 61 62 63 65 67 68 68 67 66 66 66 67 67 69 70 71 71 69 68 67 67 66 65 63
38 39 41 45 48 50 50 50 49 49 50 53 56 57 57 58 59 60 61 61 62 63 63 64 64 65 67 68 69 68 67 66 66 66 65 65 65 63
38 41 42 41 42 44 46 48 48 48 50 52 55 58 59 59 59 59 57 57 58 60 62 64 65 64 64 64 63 63 64 65 66 65 64 64 63 63
39 41 42 43 43 44 46 47 48 47 48 50 53 57 59 61 60 60 59 57 57 57 59 59 61 62 61 60 60 61 62 63 64 64 63 63 63 64
41 41 42 41 41 43 45 47 48 49 49 49 50 53 56 58 58 57 54 53 53 53 53 53 54 54 55 56 56 56 57 58 60 62 62 62 62 61
43 43 43 41 41 42 45 46 48 49 49 49 50 51 52 52 51 51 51 50 49 50 51 51 52 53 53 54 54 54 55 56 58 60 60 60 60 61
41 44 46 44 43 44 45 47 49 50 50 50 50 49 49 49 49 50 49 48 47 47 48 50 51 52 53 54 55 56 55 55 56 58 59 60 60 60
39 41 45 47 47 47 47 48 50 52 52 52 51 50 49 49 50 49 48 47 46 45 46 48 50 52 53 53 54 54 53 53 53 54 56 57 56 55
40 39 41 45 48 49 49 49 51 53 54 54 53 52 50 50 50 49 48 47 47 47 48 50 51 51 51 52 53 53 52 51 51 50 48 47 47 48
44 42 41 42 44 46 47 48 49 51 52 53 53 52 51 51 50 50 49 49 49 49 50 51 52 52 51 50 51 52 51 49 47 45 43 43 42 42
47 47 45 44 44 44 46 47 48 48 48 49 50 49 49 50 50 50 48 47 47 48 49 51 53 53 51 49 48 48 47 46 43 42 42 41 41 41
50 50 49 48 46 46 47 48 49 48 48 48 48 48 48 48 49 49 47 46 44 45 45 47 48 49 47 45 43 43 43 42 41 40 40 40 40 40
52 52 52 51 51 50 49 49 50 50 50 50 49 49 49 49 49 48 47 46 43 41 42 43 43 44 44 43 42 42 42 42 40 38 36 35 35 34
51 53 53 54 54 54 54 53 52 52 52 52 51 50 50 50 49 48 46 44 43 41 40 41 41 41 41 42 43 43 44 43 41 38 36 35 35 34
43 50 54 56 57 57 57 57 56 55 54 53 52 51 50 50 50 48 46 44 43 42 41 41 42 42 42 43 45 46 45 44 42 40 38 37 36 34
30 39 48 54 58 59 59 59 59 59 57 56 55 53 52 51 50 49 47 45 43 42 42 42 42 42 43 43 45 46 45 42 40 38 36 35 34 32
21 27 35 44 53 58 61 61 61 61 61 60 59 58 56 55 53 51 49 47 45 44 42 42 42 42 42 42 42 42 41 39 37 36 35 34 32 31
17 20 24 31 40 50 57 62 64 64 64 64 64 63 62 60 58 56 54 51 49 47 45 44 42 42 41 40 39 39 39 38 37 37 36 35 33 32

GEFSNE_500_meanwind_012.txt.gz
Wind_Speed
64 73 79 83 87 88 88 88 87 86 83 79 75 74 74 73 73 73 73 71 69 67 66 64 62 61 61 61 60 58 56 54 53 53 52 51 50 49
45 53 61 69 76 83 87 88 89 88 87 84 80 76 75 74 73 73 73 73 73 72 69 68 66 64 64 63 62 61 59 58 56 56 56 55 54 53
37 40 46 52 60 69 77 83 87 88 88 87 85 80 78 77 75 73 72 71 72 72 71 70 69 68 68 67 65 63 62 61 60 59 58 58 57 55
36 37 39 43 47 54 63 71 78 82 86 86 86 84 81 79 78 77 75 73 71 70 70 69 69 68 67 67 67 67 66 65 64 63 62 61 60 59
38 38 38 40 43 46 51 58 66 72 77 81 82 83 82 79 77 76 76 76 74 72 70 69 69 69 69 70 69 68 67 67 66 65 64 63 63 62
40 40 39 40 41 44 48 52 57 62 67 70 73 76 78 77 76 74 74 76 75 74 72 70 70 69 70 71 70 70 70 69 68 67 65 64 64 63
41 40 39 38 38 38 41 46 50 55 58 61 64 67 70 71 72 70 71 73 74 74 73 72 70 69 70 71 72 74 74 74 72 71 69 67 67 67
41 40 37 36 34 33 35 41 48 51 53 56 60 63 65 66 67 68 68 70 72 73 73 72 72 72 71 71 72 73 75 75 74 74 74 73 74 73
41 40 37 35 32 32 34 38 48 50 51 55 56 59 62 64 64 65 66 67 68 68 69 71 72 73 74 75 76 76 76 76 77 78 78 77 77 78
43 41 39 37 35 36 37 39 47 50 52 55 55 58 60 61 63 64 64 63 64 66 68 69 71 72 74 76 77 76 76 77 78 78 79 79 78 79
46 44 43 41 41 41 39 41 46 50 52 55 55 54 54 55 57 58 59 59 59 60 63 65 67 68 71 73 74 75 76 76 76 77 76 76 76 77
48 48 47 46 46 45 43 42 43 46 50 51 52 51 50 50 50 52 52 52 52 53 55 57 58 60 61 64 66 68 69 70 71 71 72 72 73 74
50 50 50 50 50 50 47 45 43 43 45 47 49 50 50 50 50 50 50 50 50 51 51 53 54 55 56 57 58 59 60 62 64 66 67 68 69 70
49 51 51 51 52 53 51 48 46 44 43 43 45 47 49 51 52 52 52 51 51 52 53 54 55 56 56 56 56 56 55 56 57 58 59 61 62 63
49 51 51 52 52 53 53 52 50 47 46 45 45 46 48 50 51 52 52 52 51 52 53 55 57 57 58 58 58 58 57 57 56 55 55 55 56 57
45 49 50 51 51 52 53 53 52 51 50 49 48 48 48 49 50 51 52 52 52 52 52 53 55 57 58 59 59 59 58 57 56 56 55 55 55 54
40 46 48 50 50 51 51 51 52 52 53 52 52 52 51 51 51 51 51 51 52 52 51 51 52 54 56 57 57 57 56 55 55 55 54 54 53 53
32 40 46 49 50 51 51 50 50 50 52 55 55 55 55 54 53 53 52 51 51 51 50 48 48 49 51 53 53 52 51 51 51 52 53 53 53 52
23 32 40 47 49 51 51 51 49 49 50 53 56 57 57 57 56 56 55 54 53 52 50 48 47 47 49 50 49 48 48 48 49 50 51 52 52 52
16 22 31 40 47 50 51 52 51 50 49 49 52 55 58 58 58 58 57 56 55 54 52 49 48 47 47 47 47 46 46 46 46 47 49 49 50 50
12 15 21 30 39 47 50 52 53 52 50 49 48 50 53 54 55 57 57 56 55 54 52 50 48 47 46 46 45 44 44 43 44 44 45 45 46 46
11 13 16 21 29 39 47 51 52 53 53 51 49 48 49 50 51 52 53 53 53 52 50 49 48 47 46 45 44 43 42 41 41 41 41 41 42 42
9 10 13 16 21 28 38 46 51 53 54 53 52 50 49 49 49 49 50 50 50 50 49 48 47 46 45 44 43 42 41 40 39 39 38 38 38 39

GEFSNE_500_meanwind_018.txt.gz
Wind_Speed
43 42 43 46 57 74 89 96 95 92 89 85 82 79 75 74 75 74 73 72 71 70 68 65 62 60 58 56 54 51 49 47 46 46 47 48 48 46
41 40 40 40 46 59 77 90 95 94 91 88 85 83 78 73 72 73 72 71 71 71 69 67 64 62 60 59 56 54 52 50 48 48 47 48 47 46
39 38 37 37 39 47 61 79 91 94 93 89 87 85 82 77 72 69 68 69 70 70 70 69 67 65 63 62 60 58 56 54 53 52 51 49 48 48
38 37 35 34 35 39 48 64 79 90 92 91 88 86 84 81 76 72 68 67 68 68 68 68 67 65 64 64 63 61 59 57 56 55 54 52 51 50
37 36 35 34 34 36 41 52 65 78 87 89 88 87 85 83 80 76 73 69 68 67 66 66 66 65 64 64 63 61 60 58 58 57 56 55 54 53
37 37 36 34 34 35 38 44 53 64 75 83 85 85 85 84 82 78 75 72 69 68 66 65 64 64 64 63 63 62 61 60 59 58 57 56 55 55
37 37 37 36 35 35 36 39 44 52 62 71 77 80 82 82 81 78 76 73 71 68 66 66 64 63 63 63 63 63 62 61 60 59 58 57 56 56
37 38 38 37 36 35 35 36 39 44 51 59 65 71 76 78 79 77 76 74 72 70 67 66 64 63 61 61 61 61 63 63 63 62 61 60 59 58
38 38 38 38 37 36 35 36 37 40 44 50 56 62 67 73 74 74 74 73 71 70 67 65 64 63 62 61 60 60 61 61 62 63 63 62 62 61
39 39 39 39 38 36 36 36 36 37 39 43 47 52 57 62 66 69 69 69 68 68 67 65 65 63 62 62 62 61 60 59 59 58 58 59 59 60
38 40 40 39 39 37 37 36 36 35 37 38 41 45 50 54 58 62 64 63 63 64 64 64 64 64 63 62 62 62 61 61 60 59 59 60 60 61
36 40 41 41 40 39 37 36 34 34 34 34 36 39 45 50 55 59 61 60 60 61 62 63 64 64 64 64 64 64 64 64 64 63 63 63 64 63
33 39 42 42 41 40 38 36 35 33 31 31 32 33 38 45 50 54 59 58 58 59 60 63 63 64 64 65 65 65 65 65 66 67 68 69 70 70
29 36 41 44 43 42 41 39 37 35 33 32 32 32 35 41 45 51 56 56 56 57 59 62 62 62 63 63 65 67 68 70 70 70 70 71 72 71
26 33 39 44 45 45 44 42 40 38 36 36 35 36 39 41 45 50 54 54 55 57 58 59 60 61 62 63 64 66 69 70 70 70 70 71 71 71
22 29 37 43 46 47 47 45 43 42 40 39 39 40 43 44 46 49 52 53 55 56 55 54 55 56 56 58 60 61 63 64 65 66 66 67 67 67
17 25 33 40 45 48 49 48 47 45 44 42 42 43 45 46 47 50 53 53 53 53 52 51 49 48 49 49 51 52 54 55 55 56 56 57 58 59
12 19 27 36 42 47 49 50 50 49 48 46 45 45 47 48 47 48 50 51 51 50 50 50 49 47 46 46 47 47 47 48 49 50 50 49 49 49
8 13 21 30 38 44 48 51 51 51 50 49 47 47 48 48 48 48 48 49 49 50 50 50 50 49 49 48 47 47 46 46 46 46 46 45 45 45
7 9 15 23 32 40 46 49 51 52 52 52 51 49 49 49 48 48 48 48 49 49 50 51 51 51 51 50 49 48 48 47 46 46 45 45 45 46
9 7 10 16 24 34 41 47 50 51 52 53 52 52 51 50 50 49 49 49 49 50 50 50 51 51 51 51 50 49 49 47 46 45 45 45 45 46
23 11 7 9 16 25 34 42 47 50 51 51 52 53 52 52 52 51 51 50 50 51 51 51 52 52 52 51 51 50 49 47 46 45 44 44 44 44
42 29 15 6 8 15 24 34 42 47 50 51 51 51 52 52 53 53 53 53 53 52 52 52 53 54 53 52 51 50 48 47 46 44 43 43 43 43

GEFSNE_500_meanwind_024.txt.gz
Wind_Speed
38 43 49 56 65 71 71 69 68 71 81 92 100 102 101 96 89 84 80 74 72 74 76 76 73 69 65 61 59 56 54 52 49 49 54 56 56 54
34 39 45 51 59 67 70 68 66 67 73 84 95 101 101 98 93 87 83 79 74 73 74 75 74 71 67 64 61 57 54 53 52 52 55 58 59 57
31 35 40 46 53 62 67 67 65 63 66 74 86 96 100 96 93 90 87 82 78 75 74 74 74 72 69 67 64 61 58 54 52 52 55 58 61 61
29 32 36 41 48 56 62 64 63 61 61 66 76 86 94 93 90 90 89 85 81 77 75 74 73 72 70 68 66 64 62 58 56 54 52 52 56 59
27 29 33 38 43 50 56 59 60 58 57 61 68 78 86 90 88 88 89 86 84 80 76 74 73 72 70 69 67 66 64 62 59 57 54 51 51 53
25 27 31 35 40 45 51 54 55 55 54 57 64 72 79 84 85 86 87 87 85 82 79 76 73 72 70 69 67 66 65 63 61 58 56 52 49 49
23 26 30 33 37 42 46 48 50 50 50 53 60 69 77 80 81 82 84 85 85 84 82 79 74 71 69 69 68 67 65 64 61 59 58 55 52 49
22 26 29 32 35 38 41 43 44 44 44 48 55 67 78 82 81 82 82 83 84 83 82 80 76 73 70 68 68 67 66 65 63 61 59 57 55 52
21 25 29 32 34 36 38 38 39 38 39 41 48 62 77 87 84 82 83 83 83 83 81 79 77 74 72 68 67 68 68 67 65 63 61 59 57 55
20 25 29 31 33 34 35 35 34 34 34 36 41 54 73 87 90 86 82 84 84 82 80 77 76 74 72 69 66 66 67 67 67 65 63 61 60 58
18 25 29 31 32 33 33 32 32 31 31 32 35 43 61 79 91 90 85 84 84 82 79 75 73 72 70 67 65 64 64 65 66 65 64 62 60 58
17 24 29 31 33 33 32 31 30 29 29 30 33 38 48 65 83 91 90 85 83 81 79 74 71 70 69 67 64 61 61 62 62 62 62 61 60 58
14 22 28 31 32 32 31 30 28 27 27 27 30 35 41 52 67 82 88 87 83 79 77 75 70 68 67 66 64 62 60 58 58 59 59 59 58 57
11 20 26 30 31 32 32 30 28 26 25 24 26 31 37 45 55 67 79 83 82 78 74 72 70 67 65 65 63 62 60 58 57 56 56 56 56 56
8 16 24 29 31 32 32 30 29 27 25 23 24 27 32 39 48 57 67 74 77 74 71 68 67 64 61 61 61 60 59 58 57 56 56 55 54 54
5 13 21 27 31 32 32 31 30 28 26 24 23 24 28 33 41 51 59 65 69 69 68 66 65 64 61 59 58 57 56 55 54 54 54 54 54 54
2 8 17 25 30 32 33 32 31 29 28 25 24 24 26 30 36 44 53 60 63 65 65 65 65 64 62 59 57 57 57 55 54 54 55 55 54 55
7 2 11 20 27 32 33 34 33 32 30 28 26 26 26 28 32 39 47 55 60 63 63 63 63 63 61 60 58 58 57 56 57 57 57 57 57 57
14 6 4 13 23 29 33 35 35 34 32 31 29 28 28 29 31 36 43 50 56 60 61 62 61 60 59 58 58 58 58 57 57 58 59 59 59 59
27 14 5 5 15 25 31 35 37 36 35 34 32 31 30 30 31 34 40 47 52 56 60 62 61 60 60 59 59 59 59 58 57 58 59 60 60 60
39 27 15 5 6 17 27 33 37 39 38 37 36 34 33 33 33 34 38 43 48 53 58 60 60 60 60 60 59 59 59 59 58 57 57 57 55 54
43 38 28 16 5 6 18 28 35 39 41 41 40 38 38 37 37 37 38 41 45 49 53 56 57 57 58 57 56 56 55 55 54 54 52 51 48 46
43 40 36 28 17 6 6 19 29 37 41 43 43 43 42 41 41 41 41 42 45 47 49 51 54 56 57 56 55 53 52 51 49 48 46 44 42 40

GEFSNE_500_meanwind_030.txt.gz
Wind_Speed
32 35 37 39 40 42 44 49 58 67 75 79 81 85 94 103 105 103 101 99 96 93 89 86 85 82 77 70 67 60 51 50 51 51 51 50 46 43
23 28 32 34 35 37 40 45 53 63 70 76 77 79 86 97 103 103 101 99 97 94 89 85 83 82 80 77 70 65 57 50 48 48 47 45 44 41
16 22 26 28 30 33 36 41 48 58 65 72 75 76 80 89 99 102 100 97 96 93 89 85 81 79 79 79 74 68 62 55 50 47 45 44 43 42
10 16 20 23 25 28 32 37 44 53 61 67 72 73 75 82 92 100 101 97 95 92 88 84 81 78 78 78 75 71 66 60 54 48 46 44 44 44
7 12 16 19 21 24 28 33 40 49 57 63 68 70 71 76 86 96 101 98 95 91 88 85 81 78 76 75 74 73 69 64 57 51 49 46 45 45
6 10 14 16 18 21 24 30 37 45 53 60 65 67 68 70 79 90 99 101 96 89 86 84 81 78 76 74 73 72 70 68 63 57 53 49 47 45
7 9 12 14 16 18 22 27 34 41 49 57 62 64 64 66 72 84 94 99 97 90 85 83 79 76 74 72 71 71 70 69 67 61 58 53 49 46
7 9 11 12 14 17 20 25 32 39 46 54 59 61 61 62 65 74 87 96 95 91 86 81 77 75 73 70 69 69 70 70 68 66 61 56 51 49
5 7 10 12 15 17 21 25 30 36 43 50 56 58 57 57 59 66 77 89 94 90 86 79 76 73 73 70 68 67 67 68 67 65 63 61 57 54
3 5 9 12 15 18 21 25 29 34 40 46 52 54 54 53 55 60 69 79 88 90 88 81 73 70 70 70 69 67 66 65 65 66 65 63 60 58
4 3 8 12 16 19 22 25 28 32 38 44 48 51 51 50 51 55 62 71 79 84 85 81 74 69 69 69 69 68 66 65 65 65 65 63 61 58
6 1 7 12 16 20 22 25 28 32 36 41 46 49 49 48 48 50 57 64 70 76 80 79 76 72 71 70 69 68 67 66 65 64 64 64 62 61
8 2 7 13 17 20 23 24 27 30 34 38 42 45 47 46 46 47 53 59 65 69 72 74 73 73 73 72 71 69 68 67 65 64 63 63 62 61
11 4 7 13 17 20 22 24 26 28 31 34 37 41 43 44 45 47 51 57 61 65 67 70 69 69 71 73 72 71 70 68 67 64 62 61 60 60
15 7 6 12 16 19 21 23 25 27 29 31 33 35 38 41 44 47 51 57 62 65 66 67 66 65 68 71 72 72 71 70 69 66 63 61 59 58
20 10 6 10 14 17 20 21 23 24 26 27 29 31 34 37 41 46 51 58 64 66 67 67 67 66 65 68 71 72 71 70 69 67 63 62 60 58
26 15 6 7 12 15 18 20 21 22 23 24 25 27 29 33 38 44 50 58 66 69 69 68 67 64 62 65 69 72 72 69 67 64 62 61 60 60
32 21 10 4 9 13 17 18 20 21 22 21 22 23 25 28 32 39 47 55 64 69 71 69 67 65 62 60 65 68 69 68 66 64 61 59 59 60
38 27 16 6 5 11 15 18 19 20 21 21 20 21 22 24 27 32 41 51 61 68 69 69 68 66 65 63 64 66 65 66 66 64 62 60 59 58
41 35 24 13 3 8 14 18 20 21 21 21 20 20 20 21 24 27 34 45 56 63 66 67 67 66 64 62 62 62 62 62 64 63 62 60 59 57
41 38 32 22 10 2 10 16 20 22 23 22 21 20 20 20 22 25 30 38 49 57 61 64 66 66 63 61 61 61 61 61 59 59 59 58 57 57
39 38 36 30 20 8 4 13 19 23 24 24 23 22 21 21 22 23 27 34 42 51 56 59 63 65 63 61 58 57 57 57 58 58 57 56 55 54
36 36 36 33 27 19 7 6 15 21 25 27 26 25 23 22 22 23 26 32 38 45 51 55 59 63 63 61 58 55 55 55 56 57 57 57 56 55

GEFSNE_500_meanwind_036.txt.gz
Wind_Speed
17 13 7 6 16 27 38 46 52 55 56 57 58 63 74 87 97 105 112 115 115 114 111 106 102 96 91 87 82 78 75 72 69 67 67 66 65 63
13 10 6 5 11 20 29 38 45 50 52 55 56 59 67 79 89 98 106 112 114 113 111 108 104 99 93 88 83 79 75 73 71 68 67 65 66 65
12 9 6 5 9 16 23 31 38 44 47 50 53 55 62 72 83 91 100 108 113 113 111 109 106 101 95 90 85 80 75 72 72 70 67 66 64 64
12 9 7 6 9 13 18 25 31 38 42 45 50 52 57 66 76 85 94 103 110 112 112 110 107 103 98 92 86 82 77 73 69 69 68 66 64 63
13 10 8 8 9 12 15 20 26 32 37 41 46 49 53 61 70 79 88 98 106 111 111 110 108 105 100 95 89 84 80 75 69 66 64 64 63 61
13 10 8 7 8 10 13 17 21 26 32 37 42 46 50 58 66 75 83 93 102 108 110 110 108 106 103 99 93 87 80 74 71 67 62 57 58 58
14 9 7 7 7 9 11 14 18 22 28 33 37 42 48 55 63 71 79 88 97 104 108 109 108 106 104 101 95 90 84 78 69 63 59 55 52 54
15 10 5 5 6 8 10 12 15 19 24 29 34 40 46 53 60 67 75 83 91 101 105 107 107 106 104 102 98 93 85 81 76 65 58 53 50 51
16 10 4 3 4 6 9 11 14 17 21 26 31 38 44 51 58 64 72 79 87 96 102 105 105 103 102 100 99 94 88 84 78 71 63 53 49 48
18 12 6 1 3 5 7 10 13 16 19 24 29 36 43 49 56 62 68 74 82 90 96 100 101 99 99 97 96 92 87 83 78 71 65 59 52 49
20 13 8 5 4 5 7 9 11 14 18 23 28 35 42 49 54 59 64 70 77 85 91 94 95 93 93 93 90 88 86 82 77 72 66 61 57 52
22 15 10 7 6 7 7 9 10 12 17 22 27 34 41 48 52 56 60 66 73 80 87 89 89 88 86 86 85 84 82 79 75 71 67 63 59 55
24 17 12 9 8 8 8 8 9 11 15 21 26 33 40 46 50 54 57 62 69 75 83 86 85 84 82 79 79 79 79 76 73 70 67 64 60 56
25 18 13 10 9 9 9 8 8 10 14 20 26 32 38 44 48 51 54 58 63 70 78 82 83 81 76 72 72 74 74 73 71 67 65 64 62 59
27 20 14 10 8 8 9 8 8 10 14 19 26 32 37 42 46 48 50 53 59 66 73 77 79 78 75 72 70 69 70 71 71 68 65 63 62 60
29 21 15 10 7 7 8 8 8 10 14 18 25 31 36 40 44 45 47 49 54 60 68 74 77 76 73 70 68 66 67 69 69 67 66 64 63 62
34 24 17 11 7 6 7 8 9 11 14 18 24 29 34 39 41 43 44 46 50 54 62 70 75 75 73 70 66 65 65 66 67 67 66 65 64 62
38 29 19 12 7 5 5 7 9 11 14 18 23 28 32 36 39 40 42 44 47 51 58 66 72 74 73 68 65 64 64 65 65 65 64 63 64 63
40 33 24 15 8 4 4 7 9 11 14 18 22 26 30 34 37 39 41 43 46 49 54 61 68 72 73 69 65 63 63 62 62 64 64 63 61 61
38 36 29 20 11 4 3 6 9 12 15 18 21 25 29 32 35 37 39 42 45 48 51 57 63 69 71 68 65 63 63 63 62 63 63 63 61 60
36 36 33 26 17 7 1 6 10 13 15 18 21 24 27 30 33 35 38 40 44 47 50 54 59 64 68 67 65 65 63 63 63 62 60 61 61 61
34 35 35 32 23 13 3 5 11 14 16 19 21 23 26 28 31 34 37 39 42 46 51 54 57 60 64 66 65 64 63 63 63 63 62 60 59 58
33 33 35 35 30 21 10 3 10 15 18 20 22 23 24 26 28 31 35 39 42 45 51 56 58 59 61 63 64 62 61 60 61 62 62 61 59 57

GEFSNE_500_meanwind_042.txt.gz
Wind_Speed
41 35 31 26 23 21 18 15 14 19 29 42 54 63 68 69 70 74 81 91 102 113 121 124 124 121 118 113 108 103 98 93 88 83 78 74 72 69
41 35 30 25 22 20 18 16 15 17 26 37 48 58 63 64 65 66 71 80 92 104 114 121 123 122 119 115 111 106 100 95 90 85 80 76 73 71
41 35 29 24 20 18 16 15 15 16 22 33 43 53 59 60 60 60 62 69 81 94 107 116 121 122 120 117 113 108 103 97 92 87 81 77 74 72
40 35 28 23 19 17 15 13 13 14 18 27 37 47 54 57 57 57 58 62 72 85 99 110 118 121 120 118 115 111 106 100 94 89 83 77 74 73
40 34 28 23 18 15 13 12 11 12 15 23 32 42 49 53 54 54 54 57 64 77 92 104 114 119 119 118 116 113 108 102 96 90 84 78 75 73
41 34 28 23 18 15 12 11 9 10 13 19 27 36 43 49 50 51 51 53 59 70 84 98 108 116 118 117 115 113 109 104 98 92 86 80 75 72
41 34 28 23 18 15 12 10 9 8 11 15 23 30 38 44 47 48 49 50 54 64 78 92 103 112 116 116 115 113 110 105 100 95 89 82 76 71
41 35 29 23 20 16 13 11 9 6 8 12 18 25 32 39 43 45 45 47 50 59 72 86 98 108 113 114 114 112 110 105 100 96 90 82 76 72
40 34 29 25 21 18 15 12 9 6 6 9 15 22 28 34 39 41 43 43 47 55 67 79 93 103 110 112 112 111 109 106 101 96 92 85 79 74
39 34 29 25 22 19 16 14 11 8 5 6 12 18 25 30 35 38 40 42 46 54 64 74 88 97 106 109 110 110 108 105 101 96 91 86 79 73
38 34 29 25 22 20 18 15 13 10 6 4 8 14 21 27 32 36 38 41 46 53 62 71 82 93 101 104 107 108 107 103 99 95 91 86 80 76
38 33 29 25 22 20 19 17 15 12 8 4 4 10 17 23 29 33 36 40 47 53 61 69 78 89 96 100 102 105 105 102 97 93 90 85 79 74
39 32 28 25 22 20 19 18 15 13 10 6 1 6 13 20 26 31 36 40 46 53 60 67 75 85 93 95 97 100 102 100 96 92 88 83 76 70
40 33 28 25 22 20 19 18 16 14 11 8 4 5 11 17 24 30 35 39 45 51 59 66 72 80 87 89 93 97 99 97 93 90 87 82 75 68
41 36 29 25 22 20 18 17 15 14 11 9 6 7 11 16 23 30 36 40 45 51 58 64 70 77 82 86 89 92 94 94 93 90 86 82 76 69
42 37 32 26 22 19 17 15 14 12 10 8 7 8 12 17 23 31 36 40 43 49 57 62 67 73 75 80 85 87 88 90 91 89 86 81 75 70
44 39 34 28 23 19 16 14 13 11 9 8 7 8 13 19 25 32 37 40 43 48 55 61 66 70 71 75 80 83 84 86 86 85 85 81 75 71
43 41 36 30 24 19 15 13 11 9 8 7 8 9 14 20 26 32 36 39 43 48 53 59 64 67 68 71 74 77 80 81 81 81 82 80 75 72
41 41 39 33 26 20 15 11 9 7 7 7 8 11 15 21 26 32 36 39 43 48 53 58 62 64 66 69 70 73 76 77 77 77 78 77 73 68
40 40 39 36 29 22 15 11 7 5 5 6 8 11 16 21 26 31 36 39 44 48 52 59 61 62 64 66 67 68 71 72 74 74 75 74 71 66
38 39 39 38 33 25 17 10 6 3 4 6 9 12 16 21 25 29 34 39 43 48 54 59 62 62 63 64 64 64 67 68 68 69 70 70 69 65
38 37 38 38 35 29 20 11 5 1 4 7 10 13 16 20 24 28 32 38 42 46 53 59 61 61 63 65 65 64 66 66 65 63 63 63 62 60
38 37 37 37 36 31 23 14 6 2 6 9 12 14 17 20 24 27 30 35 40 45 51 57 60 61 62 63 64 63 63 65 64 62 60 58 56 54

GEFSNE_500_meanwind_048.txt.gz
Wind_Speed
64 60 57 52 48 46 43 40 35 27 20 23 25 26 27 30 40 54 72 87 99 109 118 126 131 133 131 128 124 120 115 111 106 101 96 91 82 74
62 58 54 51 47 44 41 38 35 30 22 20 23 24 26 28 35 46 62 78 91 102 111 120 127 131 132 130 126 121 117 112 108 103 98 93 87 78
60 56 52 48 45 43 40 36 34 31 25 19 21 22 23 25 31 40 54 68 82 94 103 113 122 128 131 131 128 123 119 114 110 105 100 95 89 82
58 54 50 46 44 41 38 35 33 31 27 21 20 20 19 21 27 36 47 60 72 84 95 104 115 124 129 130 129 125 121 116 112 108 102 97 92 86
56 52 48 45 42 40 37 35 32 30 27 23 19 18 17 17 22 31 41 53 63 75 86 96 105 116 125 129 129 127 123 118 113 109 105 100 95 89
55 51 47 43 41 38 36 33 31 29 26 23 19 17 15 15 19 27 37 47 57 66 76 87 96 107 118 126 128 126 123 120 116 112 107 102 97 92
54 50 46 42 40 37 35 33 30 28 25 22 19 17 14 13 18 25 34 43 51 59 68 78 87 98 110 120 126 127 125 122 118 114 109 104 99 94
53 49 45 41 38 36 35 33 31 28 25 22 19 16 13 12 16 24 32 40 46 54 61 69 79 88 100 113 121 125 125 123 119 115 111 106 102 97
52 48 44 40 36 34 33 32 31 28 25 22 18 15 12 11 16 24 31 38 44 50 55 61 70 79 91 104 115 122 124 123 120 117 112 108 104 99
52 48 44 40 36 33 31 30 29 27 25 22 18 13 11 11 15 23 31 36 41 46 50 54 63 72 83 95 107 117 123 123 121 118 114 110 106 101
51 48 45 40 36 32 30 29 28 26 25 22 18 13 10 10 15 22 30 36 39 43 46 50 56 65 76 87 99 111 118 122 121 118 115 111 107 103
50 48 45 41 36 32 29 27 26 25 24 22 17 12 9 9 13 21 29 35 38 40 43 47 52 59 68 80 91 104 113 119 119 118 115 112 108 105
49 47 45 41 36 32 29 26 25 23 22 20 16 12 8 8 13 20 28 33 37 39 41 45 49 55 63 74 85 97 108 114 117 116 115 113 110 106
48 46 44 42 37 32 28 25 23 22 21 19 16 12 7 6 12 19 26 31 36 38 39 42 46 52 59 69 80 91 102 110 114 114 112 112 110 107
48 46 44 43 39 32 28 25 23 21 19 17 15 12 7 4 10 17 24 29 34 36 38 40 44 49 57 65 75 86 96 105 110 111 109 109 109 106
47 45 44 43 41 35 29 26 22 20 18 16 14 12 7 2 8 15 22 27 31 34 36 40 44 49 55 63 73 82 92 99 106 108 106 106 107 106
46 45 44 43 40 36 29 25 22 19 17 15 13 10 6 1 5 12 18 23 27 32 35 38 42 49 56 63 71 80 88 95 102 104 104 103 102 102
45 44 42 42 39 36 29 24 21 18 16 13 11 8 5 2 6 10 15 19 24 29 33 37 42 49 56 62 70 78 86 92 97 100 100 99 99 98
43 43 42 41 39 36 30 24 20 17 14 11 8 6 5 4 8 11 15 19 22 26 30 34 41 47 54 61 69 77 83 89 93 96 96 95 94 93
42 42 41 40 39 36 31 25 20 15 12 9 6 4 4 4 7 11 14 18 21 25 29 34 40 46 52 60 69 77 83 88 91 92 91 90 90 89
41 41 40 40 39 36 32 26 20 14 10 6 3 2 3 5 7 10 14 18 22 26 30 33 37 43 51 60 67 75 81 85 87 88 87 88 89 88
39 39 39 39 38 36 32 27 20 14 8 4 1 2 4 6 8 10 15 19 23 27 30 34 38 42 50 60 68 75 79 83 84 84 84 84 84 85
38 38 38 38 38 36 33 28 21 14 7 2 1 4 6 8 9 12 16 20 23 26 29 34 37 41 49 58 67 75 79 81 82 80 79 79 79 78

GEFSNE_500_meanwind_054.txt.gz
Wind_Speed
77 76 75 75 73 73 71 69 67 62 52 48 48 49 49 46 42 38 32 29 31 38 48 61 74 84 94 104 113 121 127 130 129 127 122 117 112 105
76 74 73 73 71 70 68 66 64 61 54 48 47 47 47 44 41 39 33 30 29 35 45 59 71 82 91 100 110 119 125 129 130 128 124 119 114 108
74 73 71 71 69 68 66 63 61 59 55 48 46 46 45 43 41 39 35 30 28 32 43 57 70 80 90 99 108 117 123 128 130 129 125 121 116 110
72 71 69 69 67 66 64 61 59 56 54 49 45 45 44 42 40 38 35 31 28 30 40 55 69 80 89 97 106 115 122 127 130 129 126 121 117 113
71 69 68 67 66 64 62 60 57 55 52 49 45 44 43 41 39 37 35 31 28 29 37 51 67 79 88 96 105 114 121 126 129 130 128 123 118 114
69 68 66 65 64 62 61 58 56 53 50 47 45 43 42 40 38 36 33 31 27 27 34 47 64 78 88 96 104 112 120 125 129 130 128 124 119 115
67 66 64 64 63 61 60 58 56 53 49 46 44 43 42 40 38 35 32 29 26 26 31 43 59 74 86 95 103 110 118 124 128 129 128 124 119 115
65 64 62 62 61 59 58 57 55 53 49 46 44 43 41 40 38 34 31 27 24 23 27 37 53 68 82 92 101 108 115 122 127 129 128 124 120 116
64 62 60 60 60 58 56 55 53 51 48 45 43 42 41 39 36 33 30 26 22 21 22 31 47 61 75 88 97 105 113 120 125 128 127 125 121 117
62 61 59 58 58 56 54 53 52 49 46 44 42 41 39 37 34 31 27 23 20 18 19 26 39 53 68 82 92 100 109 117 123 126 126 124 121 118
60 59 58 57 56 55 54 52 50 46 43 42 41 40 38 35 32 29 25 21 17 15 17 23 34 47 60 74 86 94 104 113 120 125 125 124 122 119
58 57 56 55 54 53 53 51 48 44 40 38 37 37 35 32 30 26 22 18 14 13 16 23 32 42 53 66 79 89 98 108 117 123 124 124 122 120
55 54 54 53 53 52 51 50 48 44 39 37 35 34 32 29 27 23 19 14 12 13 17 23 31 40 49 59 72 83 93 103 113 120 123 123 122 120
54 53 52 51 51 50 50 48 45 42 38 36 35 32 29 27 24 20 15 11 10 12 17 23 30 39 47 54 64 76 87 97 108 116 121 122 122 121
52 51 51 50 49 49 48 47 44 41 37 35 33 30 27 24 20 17 12 9 9 12 18 24 30 38 45 52 59 70 80 92 103 112 119 122 122 121
51 50 50 49 48 47 47 45 43 40 36 33 31 27 24 21 17 13 10 7 9 13 18 24 30 37 44 50 56 64 75 86 98 108 116 120 121 120
48 48 48 47 46 46 46 44 41 39 35 32 29 25 22 19 15 11 7 6 8 13 18 24 30 36 43 49 53 60 69 80 92 103 113 118 121 120
46 46 46 45 45 44 44 42 39 37 33 29 27 23 19 16 13 9 6 5 8 12 18 24 30 35 40 45 51 57 64 74 86 97 109 116 119 119
45 45 45 44 43 43 43 40 37 35 30 27 24 21 17 13 10 7 4 5 7 12 17 22 28 34 38 43 49 55 61 70 81 92 104 113 117 117
43 43 43 43 42 42 41 39 36 33 29 26 23 19 15 11 9 6 4 5 7 11 16 21 26 31 37 42 48 53 60 67 77 87 99 109 114 115
41 42 42 41 41 42 40 38 35 32 28 25 21 17 13 10 8 6 4 4 7 10 14 19 24 30 36 41 46 52 59 65 74 83 94 104 110 114
39 40 40 40 40 40 39 36 34 32 28 24 19 15 11 8 6 4 2 3 6 9 13 17 22 29 35 39 45 52 59 65 73 81 90 99 106 111
38 39 39 39 39 39 37 35 34 32 28 24 18 13 10 7 5 3 2 3 6 9 12 15 19 25 33 38 45 52 59 66 72 80 87 94 100 105

GEFSNE_500_meanwind_060.txt.gz
Wind_Speed
66 67 68 69 70 70 70 71 70 68 69 70 73 75 77 76 74 72 67 62 57 54 53 51 49 46 42 42 46 50 56 65 76 87 98 110 122 129
65 66 68 69 70 70 70 70 70 70 70 70 72 72 73 73 71 69 65 59 55 52 51 49 47 43 40 40 43 48 54 62 71 82 93 105 118 127
65 66 68 69 69 69 69 69 70 71 72 70 70 70 70 69 67 65 61 57 53 52 50 48 46 42 38 40 43 48 52 59 67 79 89 101 115 125
65 66 67 68 68 68 69 68 69 70 72 72 69 68 67 66 64 61 58 55 52 51 50 48 45 41 37 39 42 47 52 57 67 77 88 99 113 124
64 65 66 68 67 68 67 67 68 69 71 71 69 67 65 63 61 58 55 52 51 50 49 47 44 40 37 38 42 48 54 59 67 75 85 97 111 122
62 64 66 67 66 66 66 66 67 68 69 69 68 66 63 62 60 56 53 50 49 49 48 45 42 39 36 37 41 51 57 62 68 75 84 95 109 120
61 64 65 66 65 65 65 64 65 66 67 67 66 64 62 61 58 55 52 49 47 48 47 44 42 38 35 36 40 51 59 65 70 77 85 94 106 118
61 63 64 64 64 64 63 63 64 65 65 65 64 62 61 59 56 53 52 49 46 46 47 43 40 36 33 34 40 51 60 67 71 79 87 94 105 118
59 60 61 61 62 62 61 61 61 62 63 63 62 60 60 58 55 51 50 48 46 45 45 40 38 34 30 31 40 50 62 69 73 80 88 96 105 117
58 59 59 59 60 60 59 59 59 59 59 60 60 58 57 55 52 50 48 45 43 43 43 38 34 31 27 29 38 50 63 72 76 81 88 96 106 116
57 58 58 58 58 58 57 57 57 56 56 57 57 56 55 53 50 48 46 44 41 40 39 36 31 27 23 26 36 50 62 73 78 82 87 95 106 116
56 56 57 56 56 56 56 56 55 54 54 54 53 53 52 50 47 46 44 41 39 36 34 32 28 24 20 24 34 49 61 72 80 83 88 96 106 115
55 55 55 55 55 55 55 54 54 53 52 52 51 51 49 46 43 42 41 39 36 33 31 29 25 21 17 21 32 47 60 70 80 84 89 97 106 116
53 53 53 53 53 53 53 52 52 51 51 50 49 48 45 43 40 39 38 36 34 31 28 26 22 18 15 19 30 46 60 69 77 84 89 96 107 115
52 52 51 51 51 51 51 50 50 49 49 48 46 44 42 39 38 37 35 33 31 29 26 23 19 15 13 16 27 44 58 68 76 82 88 96 106 115
50 50 50 50 50 49 49 49 48 48 47 45 42 40 39 37 36 35 32 30 28 26 23 20 17 13 11 15 26 41 56 67 76 83 88 95 104 114
48 47 48 48 48 47 47 47 47 46 45 43 40 38 37 35 34 33 30 27 25 23 20 18 15 11 9 14 24 38 52 65 74 83 88 95 103 112
46 45 45 46 46 46 45 45 45 44 42 40 38 36 35 33 32 31 28 25 23 21 18 16 13 10 9 13 23 35 48 62 73 82 88 94 101 110
43 43 43 44 44 43 43 42 42 41 40 38 36 35 34 32 30 27 25 23 21 19 16 14 12 9 9 13 22 33 45 59 71 80 87 93 99 108
40 41 41 41 41 41 40 39 39 38 38 36 35 34 32 30 28 25 23 21 19 17 14 12 10 8 9 13 21 31 43 56 67 77 85 91 97 105
38 38 39 39 39 38 37 38 37 37 36 35 34 33 30 28 25 23 21 19 17 14 12 10 8 8 10 14 20 30 40 52 64 74 82 89 96 104
35 36 36 36 36 35 36 36 35 35 34 34 33 31 28 26 23 21 19 17 15 12 10 9 8 9 12 15 21 30 39 50 60 71 80 87 94 102
33 33 33 33 33 34 34 34 33 33 33 32 31 29 26 24 22 19 17 15 13 10 9 8 9 11 15 18 22 30 39 49 59 68 75 82 90 98

GEFSNE_500_meanwind_066.txt.gz
Wind_Speed
65 65 65 65 65 64 65 65 65 64 62 62 64 65 66 66 67 67 67 67 68 69 71 72 74 75 77 78 79 80 81 81 81 81 80 81 82 83
65 66 66 66 66 66 66 66 66 65 63 62 64 65 67 68 68 68 68 68 69 70 71 73 74 76 77 78 78 77 76 76 75 75 74 75 75 75
66 66 66 66 66 66 66 66 65 66 64 63 64 66 67 68 68 68 69 69 69 70 71 73 74 75 76 76 75 73 72 71 71 70 70 70 70 70
65 65 65 66 66 66 66 65 65 65 65 64 64 66 67 68 68 68 69 69 70 70 71 72 73 74 74 73 71 70 69 68 67 67 67 66 65 65
64 64 64 65 64 65 64 64 65 65 65 64 64 65 66 67 67 68 69 69 69 68 69 70 71 71 70 69 67 66 65 65 64 64 64 62 61 61
63 63 63 63 63 64 64 64 64 64 64 64 64 64 64 65 67 68 68 67 67 67 68 69 69 68 67 65 64 63 62 62 62 61 60 59 57 57
62 61 61 62 62 62 62 62 63 63 63 63 63 63 63 65 66 67 66 66 65 65 67 67 67 66 63 61 60 59 59 59 58 57 56 55 54 53
61 61 62 62 61 62 62 62 62 63 63 63 63 63 63 64 65 65 65 65 64 62 65 64 63 61 58 57 56 56 56 56 55 54 52 50 49 49
61 61 61 61 61 61 61 61 62 62 62 63 62 62 62 63 64 64 64 64 63 62 64 61 59 57 55 54 54 54 54 53 51 50 47 45 44 45
60 60 60 59 59 59 60 61 61 61 61 62 62 61 61 61 62 62 62 62 60 59 60 59 55 54 53 51 52 53 52 49 47 45 41 40 41 42
59 59 58 58 58 59 60 60 60 60 61 61 61 60 59 59 60 61 61 61 59 55 55 57 54 52 50 48 49 50 49 45 43 39 37 37 40 43
58 58 58 58 58 59 59 58 58 58 59 59 58 58 57 57 58 59 59 59 57 52 51 53 52 52 47 45 47 47 44 41 38 35 33 35 40 44
58 57 56 57 57 57 57 56 56 56 56 56 55 55 54 54 55 55 56 56 53 50 50 51 50 50 49 44 42 42 40 37 33 31 30 34 40 45
56 55 54 54 55 54 54 54 53 54 53 53 52 52 52 52 52 52 52 50 49 49 48 49 49 48 46 43 39 38 37 33 29 27 29 35 42 48
54 54 54 53 53 52 51 52 52 51 51 51 50 50 50 50 49 49 48 47 46 46 47 47 47 45 43 42 37 34 32 29 26 24 29 36 43 50
53 53 52 51 50 49 49 49 49 48 49 49 48 48 48 47 47 46 45 44 44 43 44 45 44 42 40 39 36 31 28 24 23 23 29 37 45 53
52 51 49 48 47 46 46 45 45 46 46 46 45 45 45 45 44 43 43 42 42 40 40 41 40 39 38 36 32 27 23 21 20 22 30 39 47 54
49 48 46 45 44 44 43 43 43 44 44 43 43 43 43 42 41 41 41 41 39 38 38 37 36 35 35 32 29 23 19 18 18 22 32 42 48 55
46 44 43 43 42 41 41 41 41 41 40 40 41 41 40 39 39 38 38 38 37 36 35 34 33 32 31 28 24 20 16 17 18 23 35 44 52 56
42 41 40 39 39 38 38 38 38 38 38 38 39 39 38 37 37 36 36 35 34 34 32 31 30 30 27 24 20 17 15 16 19 26 38 49 55 57
38 37 36 36 36 36 35 35 35 35 36 37 36 36 36 35 35 34 34 34 33 31 29 28 28 26 24 20 17 15 15 17 21 30 41 51 56 59
34 34 33 33 32 32 32 32 33 33 34 34 34 34 34 34 34 33 33 32 30 27 26 25 25 23 20 17 14 13 15 17 24 33 43 52 57 61
30 29 28 28 27 27 28 29 30 31 32 32 32 33 33 33 33 32 31 29 26 25 24 22 21 18 15 13 11 11 15 20 27 36 45 52 58 62

GEFSNE_500_meanwind_072.txt.gz
Wind_Speed
71 71 71 70 69 68 68 67 67 65 61 59 60 60 62 63 64 64 63 63 62 62 63 63 63 63 64 64 65 66 66 67 67 67 68 68 69 70
70 70 69 69 68 68 68 67 67 66 62 59 61 61 63 63 64 64 64 64 63 63 63 63 63 64 65 65 66 66 67 68 68 69 69 70 71 72
69 69 68 69 68 68 68 68 67 67 64 61 63 63 64 64 65 66 65 64 64 64 64 65 65 65 65 66 67 68 68 68 69 69 70 71 72 73
68 68 68 69 68 68 68 67 66 66 65 62 63 64 64 65 66 66 65 65 65 65 65 65 65 65 66 66 67 68 69 69 69 70 71 73 74 74
67 67 67 67 66 66 66 65 65 65 65 64 64 65 65 65 66 66 65 65 66 66 66 65 66 66 67 67 68 69 69 70 71 71 72 73 74 75
66 65 65 65 64 64 65 65 65 65 66 65 65 65 64 65 66 65 66 66 66 66 66 66 66 66 66 67 68 69 70 70 71 72 72 74 75 76
64 63 62 62 63 63 63 63 64 65 65 65 65 64 64 65 65 65 65 65 64 64 64 65 65 65 66 67 68 69 69 70 71 72 73 74 76 77
62 61 61 61 61 62 63 63 64 64 64 64 64 64 63 64 64 65 64 64 63 63 65 64 65 65 65 67 68 69 70 71 72 73 74 75 76 77
59 59 59 59 60 61 62 63 63 63 63 63 63 62 62 63 64 64 64 64 62 63 65 64 64 64 65 67 68 68 69 70 72 73 73 73 73 74
56 57 58 59 60 61 61 61 61 61 62 62 62 61 61 62 63 63 64 63 62 63 64 64 63 64 65 65 66 67 68 69 70 70 70 70 71 72
55 56 57 58 59 61 60 60 60 60 61 62 62 61 60 61 61 62 62 62 61 61 63 63 62 64 64 63 63 64 65 65 67 68 68 68 69 70
53 54 56 56 57 58 59 59 59 59 60 60 60 60 59 59 59 60 60 61 61 60 60 62 62 64 63 60 60 60 60 62 64 66 66 67 67 67
52 53 54 55 56 57 58 57 57 58 58 57 56 56 56 56 57 58 59 60 60 59 59 61 61 62 62 59 56 56 57 59 61 63 64 64 62 62
50 51 52 53 54 55 55 55 55 55 54 54 53 53 54 54 55 56 57 58 58 58 58 59 59 59 59 57 54 53 55 57 59 60 60 59 58 58
49 50 51 52 52 53 53 53 53 53 52 52 51 51 52 53 54 54 55 55 55 55 55 56 56 56 56 55 53 52 53 54 56 56 56 54 53 53
48 48 49 50 50 50 50 50 51 51 50 49 49 49 49 50 50 51 51 52 52 50 51 52 53 54 53 52 52 50 51 52 51 51 50 48 47 46
46 47 47 47 48 48 47 48 48 48 48 48 47 47 48 48 48 49 49 49 48 47 47 50 51 51 51 50 50 49 50 49 48 46 45 43 41 41
44 43 43 44 44 44 44 44 45 46 46 46 46 46 46 46 46 46 46 46 45 45 45 46 47 48 48 48 49 48 47 46 44 43 42 40 36 36
41 40 40 40 40 41 41 42 42 43 43 43 43 43 43 43 43 43 43 43 43 43 43 44 45 46 46 44 43 46 45 42 40 39 37 35 32 31
39 38 38 38 37 38 38 38 38 38 38 39 39 39 39 39 39 40 40 40 40 40 40 41 43 44 44 42 39 39 42 40 38 35 33 31 27 25
37 36 36 36 36 35 35 34 34 33 34 34 34 35 35 36 36 37 37 38 38 38 38 39 41 42 41 39 36 35 37 37 34 31 28 26 23 22
35 35 35 34 34 33 32 30 29 29 30 30 31 32 33 34 34 35 35 35 36 36 36 36 37 37 36 35 33 32 32 32 29 26 23 22 21 21
33 33 33 32 31 30 29 28 28 28 29 29 30 31 32 32 32 32 33 33 33 32 32 32 32 32 32 32 30 29 28 26 24 22 20 18 19 21

GEFSNE_500_meanwind_078.txt.gz
Wind_Speed
80 80 80 80 81 81 81 81 81 79 75 74 75 74 75 75 75 76 75 74 73 72 70 68 66 65 64 63 62 61 60 60 60 61 61 61 61 62
83 83 82 82 82 82 82 82 82 82 78 73 75 75 75 75 75 75 74 74 74 72 70 69 67 66 65 64 64 63 62 62 61 61 62 62 62 63
85 85 84 83 83 82 82 82 82 81 79 74 75 75 75 74 74 74 73 73 72 72 71 70 68 67 66 66 65 65 64 64 63 63 63 63 63 64
84 84 84 83 83 82 81 81 80 79 78 74 73 74 73 73 73 73 72 72 71 71 71 70 69 68 67 67 66 66 66 66 65 65 65 64 64 65
82 81 80 80 79 78 78 77 76 76 75 73 70 71 71 71 71 71 71 70 70 69 69 69 69 68 68 67 66 66 66 66 66 67 67 67 66 66
76 75 75 74 74 73 73 72 72 71 71 70 68 68 68 68 69 69 69 69 69 69 69 68 67 67 67 67 67 67 67 68 68 68 68 68 68 68
69 68 68 68 67 67 67 66 66 66 66 66 64 64 65 65 66 67 68 68 68 68 68 68 68 68 68 67 67 68 68 68 68 67 67 68 68 68
62 62 61 61 61 61 61 61 61 61 61 61 61 60 60 61 63 64 64 65 64 65 67 67 67 66 66 67 68 68 68 68 68 67 68 68 68 68
57 57 56 56 56 56 57 57 57 58 58 58 58 57 58 59 60 61 62 62 63 64 65 64 65 65 66 66 67 68 68 68 68 68 68 69 69 69
54 53 52 52 52 53 53 53 53 54 54 55 55 54 56 58 59 60 61 61 61 62 62 62 63 64 64 64 65 65 66 67 67 67 68 68 68 68
50 49 49 48 49 49 49 49 49 50 51 52 53 53 54 55 57 58 59 60 60 60 61 61 61 62 62 62 63 64 64 65 66 66 67 67 67 68
46 45 45 45 45 46 46 46 46 47 48 50 51 52 52 53 54 55 56 57 57 57 58 59 59 60 61 61 61 62 63 63 64 65 65 66 67 68
43 42 42 43 43 43 43 44 44 45 46 48 49 50 51 51 52 53 54 54 54 55 56 57 58 59 59 59 58 59 60 61 62 63 64 66 67 69
42 41 41 41 41 42 43 43 44 45 45 46 46 47 49 50 51 52 53 53 54 54 54 55 55 56 56 56 56 56 58 60 61 62 63 65 66 67
42 41 40 40 40 41 42 42 42 43 44 44 44 45 46 47 49 50 51 52 52 52 52 53 53 54 55 55 55 55 57 58 60 61 62 63 63 64
41 40 40 39 39 38 38 39 40 40 41 41 42 43 43 44 45 46 47 47 48 49 50 51 52 52 52 53 54 54 55 55 56 58 60 60 60 60
39 38 38 37 37 37 37 38 38 39 39 40 41 41 42 43 43 44 45 46 46 46 48 49 51 51 51 52 52 52 52 53 54 56 57 56 56 57
38 37 36 35 35 36 37 38 38 38 38 38 39 39 40 40 40 41 43 44 44 45 46 47 49 50 50 49 49 49 50 50 51 52 53 53 52 52
37 36 35 35 35 35 36 36 37 37 37 37 37 38 38 38 39 40 41 42 42 43 44 46 47 48 47 46 46 47 48 48 49 49 49 50 49 49
35 34 33 33 33 34 34 34 35 35 35 35 35 35 36 37 37 38 38 38 39 40 41 42 43 44 44 43 43 43 46 47 47 47 48 48 47 47
34 34 34 34 34 34 33 33 33 33 33 33 32 32 32 33 33 34 34 35 36 37 38 39 40 41 41 41 40 40 42 45 45 45 45 45 44 44
33 33 34 34 34 33 32 32 31 31 30 30 30 30 30 31 31 31 32 32 33 34 35 36 37 38 38 38 37 37 39 41 42 42 42 43 42 38
34 34 34 34 33 32 30 29 29 28 28 28 29 29 29 29 29 29 29 30 31 32 32 33 34 35 35 35 35 36 36 37 39 39 40 40 38 34

GEFSNE_500_meanwind_084.txt.gz
Wind_Speed
83 84 86 86 87 88 90 91 92 92 90 88 90 91 92 91 90 90 90 89 88 87 87 85 84 83 82 81 79 77 76 74 73 72 70 69 67 66
86 87 88 88 89 89 90 90 91 92 91 87 88 89 91 90 89 89 89 88 88 87 87 86 85 84 83 82 81 80 78 77 75 74 72 70 68 67
88 88 88 88 88 88 87 87 87 87 87 82 81 83 84 84 83 83 83 84 84 83 83 83 83 83 82 81 81 80 79 78 76 74 72 71 69 68
87 87 86 84 83 81 80 79 78 77 77 74 71 72 74 74 75 74 74 75 76 76 76 77 78 78 79 79 79 78 78 77 76 74 73 71 70 69
84 82 80 77 75 73 71 70 69 69 69 67 64 64 65 66 67 67 66 67 67 68 69 70 72 73 74 75 75 76 75 75 74 74 73 71 71 70
78 75 71 69 67 65 64 63 63 63 63 62 59 58 58 59 61 61 61 62 62 63 64 65 66 67 68 69 70 71 71 71 72 71 71 71 70 69
69 66 64 62 61 60 59 58 58 58 58 57 55 54 53 54 55 56 57 58 59 59 60 61 62 63 64 65 65 66 67 68 69 69 70 70 69 68
63 61 59 58 56 56 56 55 55 54 54 53 52 50 49 50 51 52 53 54 55 56 58 58 59 59 61 62 62 63 64 65 66 66 67 67 68 67
58 56 54 53 52 52 51 50 50 50 51 51 49 47 47 47 49 50 50 50 50 52 54 54 55 55 56 58 59 60 61 62 63 64 65 66 66 66
53 52 50 48 48 47 47 46 46 47 48 48 47 46 45 45 46 47 47 48 47 48 49 49 50 50 51 53 55 57 59 60 61 61 62 64 65 65
50 48 47 46 45 45 45 44 44 44 45 45 45 44 43 43 43 43 43 44 44 44 46 46 48 50 51 51 51 54 56 57 58 59 60 61 63 64
46 45 45 44 44 44 44 44 43 43 43 42 42 42 41 41 41 41 41 42 42 42 43 45 47 49 49 50 52 53 54 55 57 58 59 61 62 63
44 43 43 43 43 43 43 43 42 42 41 39 39 38 39 39 39 40 40 41 41 42 42 44 46 48 49 49 51 52 53 54 55 56 57 58 60 61
44 43 42 42 42 42 42 41 41 40 39 38 37 37 37 38 38 39 39 40 41 41 42 43 44 46 47 48 49 51 52 53 53 54 55 56 57 58
43 42 41 41 41 40 40 40 39 39 38 38 37 37 37 37 37 38 39 39 40 40 41 42 43 44 46 47 48 48 50 51 52 53 54 55 55 56
41 40 39 39 39 38 37 37 37 37 38 38 37 37 37 38 39 39 39 39 39 39 39 40 41 42 43 44 46 47 47 48 49 51 52 53 54 55
39 38 37 37 36 36 36 36 36 36 36 36 36 36 37 37 38 38 38 38 39 38 38 38 39 40 41 43 44 45 46 47 48 50 51 52 52 53
38 37 36 35 35 35 35 35 35 35 35 35 35 35 35 35 35 35 36 36 37 37 37 37 38 39 39 40 41 43 44 46 47 48 49 50 51 51
37 35 35 35 35 35 35 35 35 35 35 34 34 33 33 33 33 33 34 35 35 36 36 37 37 38 38 39 40 42 43 45 46 47 48 49 50 50
35 35 34 34 34 34 34 34 34 34 33 33 32 32 31 31 31 32 33 33 34 35 36 36 37 37 38 39 40 41 43 44 45 46 47 48 48 49
34 33 33 33 33 33 32 32 31 31 31 30 30 30 29 30 30 30 31 32 33 34 35 35 36 37 38 38 38 38 40 43 44 44 45 46 46 47
32 32 32 31 31 31 31 31 30 30 29 28 28 27 27 28 29 29 30 30 31 32 33 34 35 36 36 37 37 37 38 40 41 42 43 44 45 45
31 31 30 30 30 30 30 30 29 28 28 27 27 27 28 28 28 29 29 29 30 31 32 33 34 35 35 36 36 36 37 38 40 40 41 42 43 43

GEFSNE_500_meanwind_090.txt.gz
Wind_Speed
71 73 75 77 79 81 83 85 87 88 86 83 84 84 86 86 86 87 86 86 85 84 84 84 85 87 89 90 91 92 93 93 91 89 87 85 82 79
75 76 78 80 82 84 85 86 87 89 88 83 83 82 82 81 80 80 79 79 78 76 75 75 76 77 79 81 83 85 87 89 90 89 88 86 84 82
78 80 81 83 84 85 85 85 85 84 85 80 77 75 75 74 72 71 69 68 67 67 67 67 68 69 70 71 73 75 78 81 83 85 85 85 83 82
81 82 83 84 84 83 82 81 79 78 77 74 70 68 67 67 65 64 62 61 61 61 61 61 62 63 64 65 65 67 69 72 75 77 79 81 80 80
83 84 83 83 82 79 77 75 72 71 69 68 64 61 59 58 57 56 56 56 55 56 56 56 56 57 58 59 59 60 61 64 66 69 72 75 76 77
83 83 81 79 77 74 71 68 66 64 62 61 58 54 52 52 52 51 50 50 50 51 52 52 52 52 53 54 55 55 56 57 59 61 64 68 71 73
81 79 76 73 70 67 64 61 59 58 56 55 52 50 48 48 48 48 47 47 47 48 49 49 49 49 49 50 51 51 52 54 55 57 58 62 65 68
77 73 69 65 62 60 57 56 54 54 52 50 49 47 46 45 45 46 46 45 44 44 46 46 47 46 46 47 48 48 49 50 52 53 54 57 60 63
71 67 62 59 57 55 53 51 51 50 49 48 47 46 45 44 45 44 44 44 43 42 43 42 42 42 43 44 45 46 46 47 48 49 50 53 55 58
64 61 58 55 53 52 49 48 47 46 46 47 46 45 45 44 44 43 43 42 40 39 40 38 37 38 39 40 41 42 43 44 45 47 48 49 51 54
58 56 55 52 50 49 47 46 45 44 45 45 45 44 43 43 43 42 41 41 38 36 37 36 35 35 36 36 37 38 39 40 42 43 45 47 49 50
55 52 51 49 47 46 45 45 44 43 43 42 42 42 42 41 41 41 41 40 39 36 35 35 34 35 34 34 35 36 37 38 39 41 43 45 47 49
51 49 47 45 44 43 43 43 43 42 41 41 40 40 40 39 39 40 40 40 38 36 35 35 34 34 34 33 34 35 35 36 37 38 40 42 45 46
48 46 44 43 42 41 41 41 42 41 41 40 39 38 38 37 37 38 38 38 37 37 36 36 35 34 34 33 33 34 35 35 36 36 38 39 41 44
47 45 43 41 41 40 40 41 41 40 39 38 37 36 36 36 36 36 36 36 36 36 36 36 35 35 34 33 33 33 34 35 36 36 37 38 39 41
44 41 40 39 39 39 39 39 39 37 36 36 35 35 34 34 34 34 35 35 35 35 35 35 35 34 34 34 34 33 33 34 35 36 36 37 39 40
41 39 37 37 37 37 37 36 34 33 34 34 33 33 32 32 32 33 33 34 34 34 33 34 34 34 34 33 33 33 33 33 34 35 36 36 37 39
39 38 37 36 36 35 34 32 32 32 31 31 31 31 31 31 31 31 31 31 31 31 31 31 31 32 31 31 31 32 33 32 33 34 35 35 36 37
38 37 36 35 34 33 32 31 30 30 29 29 30 30 30 30 30 30 29 28 28 28 28 29 30 30 30 30 31 32 32 32 33 33 34 35 36 37
37 36 35 34 33 32 32 31 29 29 29 29 29 30 29 29 29 29 28 27 27 26 26 27 27 28 29 30 31 32 33 33 33 33 34 35 36 37
35 34 34 33 32 32 31 30 29 29 29 30 30 30 30 29 29 28 28 28 27 27 27 27 27 28 28 29 29 30 32 34 34 34 34 35 36 37
33 33 33 32 32 31 30 29 29 29 29 30 30 30 30 30 29 29 29 28 28 28 28 28 28 28 28 29 29 30 31 33 34 35 35 36 36 37
32 32 32 32 32 31 30 29 29 29 30 30 30 30 30 30 30 30 29 29 29 28 28 29 29 29 29 29 29 30 30 32 33 35 35 36 37 38

GEFSNE_500_meanwind_096.txt.gz
Wind_Speed
62 64 65 67 69 71 73 75 77 77 76 76 78 79 81 82 83 84 84 85 85 86 85 85 84 84 84 85 86 87 88 88 89 89 88 88 88 88
65 66 68 69 71 73 75 76 79 81 81 80 81 82 83 84 84 84 84 83 82 82 81 80 79 79 78 78 79 80 81 82 83 83 83 83 84 84
66 68 70 72 73 75 77 78 80 82 84 82 83 84 84 84 83 82 80 77 75 74 72 71 71 70 70 70 70 71 71 73 74 74 75 76 76 78
68 70 71 74 75 77 79 80 82 83 85 84 82 82 81 80 78 75 72 69 67 65 64 62 62 61 61 61 60 61 62 63 64 65 66 68 69 70
70 72 74 76 77 79 81 82 83 84 84 84 80 78 75 72 69 66 64 61 60 58 56 55 55 54 54 53 53 54 54 55 56 57 58 59 61 63
72 74 76 78 80 81 82 82 82 82 80 78 75 71 67 64 62 59 57 55 53 52 51 50 49 49 48 48 49 48 49 50 51 52 52 53 55 57
75 77 79 80 82 82 81 80 79 77 74 71 67 63 59 57 55 54 52 50 48 47 47 46 46 46 46 46 45 45 45 46 46 47 48 49 51 52
77 79 80 81 81 79 78 76 74 71 67 64 60 56 53 52 50 49 47 46 44 44 44 43 44 43 44 44 44 44 44 43 44 44 45 46 47 49
80 81 80 79 77 75 72 69 66 63 60 58 54 51 49 47 46 45 45 44 42 42 42 41 42 41 42 42 42 42 42 42 41 42 42 43 44 45
81 80 78 75 72 69 66 62 58 56 54 53 50 47 45 43 43 43 42 41 40 40 40 39 39 39 40 40 40 40 40 40 39 39 39 40 41 42
79 76 74 70 66 64 61 57 53 51 50 48 46 44 42 41 42 41 41 40 39 38 38 38 37 37 36 36 37 37 37 37 37 36 36 36 37 39
75 71 68 65 61 58 56 52 49 47 45 43 42 41 40 40 40 40 39 38 37 35 35 36 35 35 34 34 36 36 36 36 35 34 34 34 34 35
70 66 62 59 56 54 52 49 46 44 41 40 38 37 38 38 38 37 36 35 34 32 32 34 33 33 33 33 34 35 35 34 34 33 33 32 33 33
66 61 57 54 51 49 47 45 43 41 39 37 36 35 35 35 34 34 33 33 32 30 30 31 30 31 31 31 32 33 34 34 33 33 33 32 32 32
61 57 53 50 47 45 43 42 41 39 36 35 34 33 32 31 31 30 30 30 29 28 27 27 28 29 30 30 30 31 32 33 33 33 32 32 31 31
56 52 49 46 44 42 40 39 38 36 34 33 32 31 30 29 28 27 27 27 27 27 27 26 27 27 28 28 29 29 31 31 32 32 32 32 31 31
51 47 44 42 40 39 38 36 35 34 33 32 31 30 29 28 27 27 26 26 25 25 26 26 26 27 26 27 27 28 29 30 31 31 31 31 31 31
47 44 41 39 37 35 34 34 33 32 32 31 30 28 27 27 27 27 26 25 25 25 25 26 26 26 26 25 25 25 26 27 28 29 29 29 30 30
43 41 38 36 34 33 32 31 31 31 30 29 28 28 27 27 27 27 26 26 25 25 25 25 25 25 25 25 24 23 23 24 26 26 27 27 28 29
41 39 36 33 32 31 30 30 29 29 29 28 27 27 27 26 27 27 26 26 25 25 25 25 25 24 24 23 23 23 23 23 24 25 26 26 27 28
38 36 34 32 31 30 29 29 29 28 28 27 27 26 26 26 26 26 26 25 25 25 25 25 24 23 23 23 23 23 23 23 23 24 26 27 27 28
36 33 31 30 30 29 29 29 28 28 27 27 26 26 26 26 26 26 26 26 25 25 24 24 24 24 23 23 24 24 24 24 24 24 25 26 27 28
33 31 30 30 29 29 29 28 28 27 27 26 25 26 26 26 26 26 26 26 26 26 25 25 25 25 24 25 25 25 25 25 25 25 25 26 27 28

GEFSNE_500_meanwind_102.txt.gz
Wind_Speed
57 58 60 61 62 63 64 66 67 67 66 66 67 67 68 69 70 71 72 73 74 75 76 77 78 79 79 80 81 81 81 82 82 82 82 82 82 82
59 60 61 62 62 63 65 66 68 70 70 70 71 72 72 73 74 75 76 76 77 78 78 79 80 80 81 81 81 81 80 80 80 80 80 81 81 81
60 61 62 63 63 64 66 67 69 71 72 71 73 75 77 78 78 79 79 79 79 79 79 79 79 78 78 77 76 76 75 75 75 75 75 75 76 76
61 62 62 63 64 66 67 69 71 73 75 75 76 78 79 80 81 80 80 80 79 78 77 75 74 72 71 69 68 67 66 66 66 66 66 67 67 67
62 63 64 65 66 68 69 71 74 76 78 79 79 79 80 80 80 79 78 77 75 73 71 68 66 64 62 61 59 58 57 56 56 57 57 57 58 59
63 64 66 67 69 70 72 75 77 79 81 82 81 80 79 78 78 76 74 72 69 66 63 61 58 56 54 53 51 50 50 49 49 49 49 49 50 51
64 66 68 70 72 74 77 79 81 82 82 82 81 79 76 75 73 71 68 64 60 57 55 53 51 48 47 46 45 45 45 45 44 44 44 44 45 45
67 69 71 73 75 78 80 82 83 83 83 81 79 75 72 69 67 63 60 56 51 49 48 45 44 42 42 42 42 41 41 41 41 41 41 42 42 42
71 73 75 77 79 81 82 83 82 81 80 77 73 70 66 62 59 55 52 49 45 43 41 38 39 38 39 39 38 38 38 38 38 39 39 39 39 40
74 76 78 80 82 84 84 82 79 76 73 70 67 63 59 55 52 49 46 43 39 38 37 34 34 35 35 36 36 36 35 35 36 36 36 36 36 37
77 80 82 83 84 84 82 78 73 69 66 64 60 56 52 49 47 45 41 39 35 34 34 33 32 32 32 33 34 33 32 32 32 33 33 33 34 34
80 82 83 83 82 79 76 72 68 63 59 56 53 49 47 44 43 41 38 36 33 30 31 31 30 30 29 30 31 31 30 30 30 30 31 31 32 32
82 81 80 79 76 73 70 66 62 58 53 49 46 43 41 39 38 37 35 33 30 28 28 27 27 27 27 27 29 29 29 28 28 28 28 29 29 29
82 80 77 74 71 67 63 60 56 52 48 44 41 39 37 36 35 34 32 30 29 27 26 25 25 24 24 24 25 26 27 27 27 27 27 27 27 28
80 77 73 69 65 61 57 54 51 47 43 40 37 35 34 33 32 31 30 29 27 26 24 23 22 22 22 22 22 23 24 25 25 26 26 26 27 27
76 72 68 63 59 55 51 48 45 42 39 36 34 32 31 30 30 29 28 27 26 25 23 22 21 21 21 21 21 21 21 22 23 24 24 25 25 25
72 68 63 59 54 50 46 43 40 38 35 33 31 30 29 29 28 27 26 25 24 23 23 22 21 20 19 19 20 21 21 21 21 22 22 23 23 24
68 63 58 54 49 44 41 38 36 34 32 30 29 28 27 27 27 26 24 23 23 22 22 22 21 20 20 19 19 20 20 20 20 20 20 21 21 22
62 58 54 49 44 40 36 34 32 31 30 29 28 27 26 26 25 24 23 23 22 22 22 22 21 20 20 19 19 20 19 19 19 19 19 19 19 20
57 53 49 44 40 36 33 32 30 29 28 28 27 26 26 25 24 23 22 22 22 21 21 21 21 20 20 19 19 20 19 19 18 18 18 18 18 18
53 48 44 39 36 33 31 30 29 28 27 27 26 26 25 24 23 23 22 22 21 21 21 21 20 19 19 19 19 19 19 18 18 17 17 16 16 17
49 44 39 36 33 31 30 29 28 27 26 26 25 25 25 24 23 23 22 22 21 21 21 20 20 19 19 19 19 19 18 18 17 17 17 16 16 16
44 39 36 33 31 30 28 28 27 26 26 26 25 25 24 23 23 22 22 22 22 21 21 21 21 20 20 20 19 19 19 18 18 17 16 17 16 16

GEFSNE_500_meanwind_108.txt.gz
Wind_Speed
52 53 53 54 54 55 56 57 58 58 57 58 60 61 62 63 64 65 66 67 68 69 70 71 72 73 74 75 75 76 76 76 76 76 77 77 77 77
53 53 54 55 56 57 58 59 60 61 61 61 63 65 66 67 68 69 70 72 73 74 75 76 76 77 77 77 77 77 77 77 77 77 78 79 79 79
54 54 55 56 57 58 59 60 62 64 64 64 66 68 70 71 73 74 76 77 77 78 79 79 80 80 80 79 79 78 78 78 78 78 79 79 80 80
54 55 56 57 58 60 62 63 65 66 67 67 68 71 73 76 77 78 79 79 80 80 81 82 82 82 81 80 79 78 78 78 78 77 77 77 77 77
55 56 58 59 61 63 65 66 67 68 70 72 72 75 77 78 79 80 80 80 81 81 82 81 80 79 77 76 75 74 74 73 72 71 70 70 69 70
57 59 61 62 64 66 67 68 70 72 74 75 76 77 78 79 81 80 80 80 79 79 77 75 73 71 69 68 66 65 63 62 61 60 59 59 60 60
59 62 63 65 66 68 70 71 73 75 76 77 78 79 79 80 79 78 77 75 73 72 69 65 63 61 59 57 55 53 51 49 48 48 48 49 50 50
62 64 66 67 68 70 72 74 76 77 79 80 80 80 79 77 75 73 72 69 65 61 59 55 53 51 49 46 44 43 41 40 39 39 40 41 41 43
65 67 68 70 72 73 74 75 77 78 80 81 80 78 75 72 70 68 65 62 57 53 50 46 44 42 41 39 37 36 35 34 33 33 34 35 36 38
68 69 71 72 74 76 76 77 78 78 79 78 76 73 69 67 65 63 59 54 49 45 43 39 37 36 35 34 33 31 30 30 30 30 30 31 32 33
69 71 73 74 76 77 78 79 78 76 75 73 70 68 65 62 60 56 51 46 41 37 36 34 32 31 30 30 29 28 27 26 26 27 27 27 27 28
71 73 74 76 77 78 79 78 76 73 71 68 66 63 60 56 53 49 45 40 35 32 31 30 29 27 25 26 26 24 24 23 23 23 24 24 25 26
73 74 76 77 78 77 77 75 73 70 67 65 61 57 53 50 46 42 38 34 31 28 28 27 25 24 23 23 23 22 21 20 20 21 22 23 23 24
75 76 77 77 76 75 73 71 69 67 64 60 55 51 47 43 40 36 33 30 28 26 26 24 23 22 21 21 21 20 19 18 18 18 19 20 21 22
77 78 77 75 73 70 68 67 65 63 59 54 49 45 42 38 35 32 29 27 25 24 23 22 20 20 19 19 18 18 17 17 16 16 17 18 19 20
78 76 74 71 68 66 65 63 61 57 53 48 44 41 37 34 31 28 26 24 23 23 21 19 19 18 17 17 16 16 15 14 15 15 15 16 17 19
76 73 69 67 65 63 61 59 56 52 47 44 39 36 33 30 28 26 24 22 22 22 20 18 17 17 16 15 15 15 14 13 13 13 14 14 15 17
73 70 67 65 64 61 58 55 51 47 42 39 35 32 29 27 25 24 22 21 21 20 19 18 16 16 15 15 14 14 14 13 13 13 13 13 14 15
71 68 65 63 60 58 55 51 46 42 37 34 31 28 26 24 23 22 21 20 20 19 18 17 16 15 15 14 14 14 13 13 13 13 13 13 14 14
67 64 62 60 57 54 51 46 41 36 33 30 27 25 23 22 21 20 20 19 19 18 17 16 15 14 14 14 14 13 13 12 12 12 12 12 13 14
63 60 58 55 52 49 44 40 35 32 29 27 24 23 21 20 20 19 18 18 18 17 16 15 14 14 14 13 13 13 13 12 12 12 12 12 12 13
58 55 53 50 46 42 38 34 31 28 26 24 22 21 20 19 19 18 17 17 17 16 16 15 14 14 13 13 13 13 13 12 12 12 11 11 11 11
53 51 48 44 40 37 33 30 27 25 24 22 21 20 19 19 18 17 17 16 16 16 15 15 14 13 13 13 13 13 13 12 12 12 11 11 10 10

GEFSNE_500_meanwind_114.txt.gz
Wind_Speed
47 47 48 49 50 50 50 50 50 49 48 50 52 53 55 57 58 60 61 62 63 65 66 67 69 70 72 73 74 75 75 76 76 76 76 76 76 76
48 48 49 50 50 51 51 51 52 52 52 53 55 57 59 60 62 63 64 65 67 68 70 71 73 74 75 76 77 77 78 78 79 79 79 80 80 80
49 50 51 51 51 51 52 53 55 56 57 57 59 61 63 64 65 66 68 69 70 72 73 74 76 77 77 77 78 78 79 79 80 81 81 82 82 82
50 51 51 52 52 53 55 56 58 60 61 61 62 64 66 67 69 70 71 72 74 74 75 76 76 77 76 76 77 77 76 76 76 76 77 77 77 78
51 52 52 53 55 56 58 59 61 63 64 65 65 67 69 70 71 72 73 74 75 75 76 76 76 75 75 75 74 73 71 70 69 69 68 68 68 69
52 53 54 56 57 59 61 62 64 65 67 68 69 70 71 72 74 74 74 74 74 75 75 74 72 71 69 68 66 64 62 61 59 57 56 55 55 56
53 55 57 59 60 62 63 65 66 68 70 71 72 72 72 73 74 74 74 73 72 71 69 67 66 64 62 61 59 57 54 52 50 48 46 46 45 45
55 58 60 61 63 64 66 67 69 71 72 73 74 74 73 74 74 73 72 70 67 65 64 61 61 58 56 55 52 49 47 44 42 40 38 37 37 37
58 60 62 64 65 66 68 69 71 72 74 75 75 74 74 73 72 70 68 66 63 61 60 56 54 52 50 48 45 42 38 36 34 33 32 31 31 31
61 63 64 65 67 69 70 71 72 72 74 75 75 74 72 70 69 67 65 62 60 58 56 52 47 44 42 40 38 34 32 30 29 29 28 27 27 27
63 65 67 68 70 72 72 72 72 72 74 74 73 70 68 67 66 64 62 60 56 52 50 46 41 38 35 34 31 29 28 26 26 25 25 24 24 23
65 67 68 70 71 72 73 73 73 73 73 71 68 67 66 64 62 61 58 55 52 47 43 40 36 33 29 28 27 26 24 23 22 21 21 21 20 20
67 68 69 71 71 72 73 74 74 73 71 68 66 64 63 61 58 56 54 51 47 42 37 33 30 28 25 22 23 23 21 20 19 19 18 17 17 17
69 69 70 71 72 72 73 73 72 70 68 65 63 61 59 56 54 52 49 45 41 36 32 29 26 24 21 20 19 19 18 17 16 16 15 15 14 14
69 70 70 71 71 71 71 69 68 66 63 62 60 58 55 52 50 46 42 38 33 30 27 24 22 20 19 18 17 17 16 14 13 13 13 12 12 12
69 69 70 70 70 69 67 65 63 62 61 59 57 53 50 47 44 40 36 32 28 26 24 21 19 18 17 17 16 15 13 12 12 11 11 11 10 11
69 69 69 68 67 66 64 62 60 59 58 56 52 48 45 41 37 33 30 26 24 22 20 19 17 16 16 15 14 13 12 11 10 10 10 9 9 9
70 69 67 67 66 63 61 59 57 56 54 50 47 43 39 35 32 28 25 23 21 19 18 16 15 14 14 13 12 11 11 10 9 9 9 9 8 9
69 67 66 65 63 60 58 55 54 52 49 45 41 37 34 30 28 24 22 20 18 17 16 14 13 13 13 12 11 10 9 9 8 8 8 8 8 8
67 66 64 62 59 57 54 52 50 47 44 39 36 33 30 27 24 22 20 18 16 15 14 13 12 12 11 11 10 9 8 8 8 7 7 7 7 7
65 63 61 58 56 54 52 49 46 42 39 35 33 30 27 24 22 20 18 17 15 13 12 11 11 10 10 10 9 8 8 8 7 7 7 7 7 6
62 59 57 55 53 51 48 45 41 38 35 33 30 27 24 22 20 18 16 15 13 12 11 10 10 9 9 9 9 8 8 8 8 7 7 6 6 6
58 55 54 52 49 46 43 40 37 35 33 30 27 24 22 20 18 16 15 13 12 11 10 10 9 9 9 8 8 8 8 8 7 7 6 6 5 5

GEFSNE_500_meanwind_120.txt.gz
Wind_Speed
44 45 45 46 47 47 48 49 49 48 47 48 50 51 53 54 56 57 59 60 61 63 64 65 66 68 70 71 72 73 73 74 75 76 77 77 77 78
45 46 47 47 48 49 49 50 51 51 50 51 52 54 56 58 60 61 62 63 64 65 67 68 70 72 73 74 75 76 77 78 78 78 78 78 78 78
46 47 47 48 49 50 50 51 52 53 54 54 56 57 60 61 63 64 65 66 67 69 70 72 73 75 75 76 77 77 77 77 76 76 76 77 77 77
46 47 49 50 51 51 52 53 55 56 57 57 59 61 63 64 65 66 67 69 70 72 73 74 75 76 76 76 75 75 74 74 73 73 73 73 73 73
47 49 50 51 52 53 54 56 57 59 60 62 63 64 65 66 67 68 70 71 72 73 75 75 75 74 74 73 73 72 71 70 69 69 68 67 67 66
48 50 52 53 54 55 57 58 60 61 63 65 66 66 67 68 69 70 70 71 72 73 73 73 72 71 71 70 69 68 67 66 65 63 61 59 58 57
50 51 53 54 56 57 59 60 62 64 65 67 67 67 68 69 71 71 71 71 70 70 70 69 68 67 66 66 65 64 62 59 56 54 52 51 49 48
51 53 54 55 57 59 61 63 65 66 68 68 69 69 70 71 71 71 71 70 68 68 67 65 64 63 62 61 60 57 54 51 48 46 45 43 42 41
52 53 55 56 59 61 62 64 66 68 70 70 70 71 71 71 71 70 69 68 67 65 64 60 60 58 57 56 54 51 47 44 42 40 39 38 36 35
53 54 56 58 60 62 64 66 67 68 69 70 71 71 70 70 69 68 67 65 63 61 60 57 54 52 52 51 48 44 40 38 36 35 33 31 30 30
53 55 58 60 62 64 66 67 67 68 69 70 70 69 68 68 68 67 64 62 59 57 55 53 50 48 46 44 41 37 34 32 30 28 26 25 25 24
54 57 59 61 63 65 67 67 68 68 69 68 67 67 66 66 65 64 61 58 56 52 50 49 46 43 39 36 34 31 28 26 24 22 21 20 19 19
56 58 60 62 64 66 67 68 68 68 67 66 65 64 64 63 61 59 57 54 52 49 47 44 40 37 34 29 27 26 24 22 20 18 17 16 16 15
57 59 61 63 65 66 67 67 67 67 65 64 63 62 61 59 57 55 53 51 49 46 43 39 35 32 28 25 23 22 21 19 17 16 15 14 13 13
59 61 63 64 65 66 66 66 66 65 64 62 61 60 58 56 53 51 49 47 44 41 37 33 29 26 24 22 20 18 18 16 14 14 13 12 11 11
60 62 63 64 64 65 65 66 65 64 63 61 59 57 55 52 49 46 44 41 38 35 31 27 25 23 21 19 17 16 15 14 13 12 11 10 10 9
61 62 62 63 64 65 65 65 64 63 61 58 55 53 50 47 44 42 39 36 33 29 26 24 22 21 19 16 15 14 13 11 11 10 9 9 8 7
61 61 62 63 64 64 64 63 62 60 56 53 51 49 46 43 40 37 34 31 28 25 22 21 20 19 16 14 13 12 11 10 9 9 8 7 6 6
61 62 63 63 63 63 62 61 58 55 52 49 46 44 41 38 36 33 30 27 25 22 20 19 18 16 14 12 11 10 9 8 8 7 7 6 6 5
62 63 63 63 62 61 59 57 54 51 48 44 42 39 37 34 31 29 26 24 22 20 18 17 16 14 12 11 10 8 7 7 6 6 5 5 5 4
62 62 62 61 60 58 55 52 49 46 43 40 38 36 34 31 28 26 24 22 20 18 16 15 14 12 10 9 8 7 6 6 6 5 5 4 4 3
62 61 60 58 56 54 51 48 45 42 40 38 36 33 30 28 26 24 22 20 18 15 14 14 12 10 9 8 7 6 6 5 5 5 4 4 3 3
61 60 58 56 53 50 47 44 41 39 38 36 33 30 28 26 24 22 21 18 16 14 13 12 11 9 7 7 6 6 5 5 4 4 3 3 2 2

GEFSNE_500_meanwind_126.txt.gz
Wind_Speed
40 42 43 44 45 45 45 46 47 47 48 49 51 52 53 54 55 56 57 58 59 61 62 64 65 67 68 69 69 69 70 71 71 72 72 73 73 73
41 43 44 45 45 45 47 48 49 50 50 51 52 54 55 56 57 58 60 61 63 65 67 68 69 69 69 69 68 69 70 71 71 72 72 73 73 72
43 43 44 44 45 47 48 49 50 52 52 53 55 56 57 58 60 61 63 65 67 68 69 70 69 69 68 68 69 70 70 70 70 70 70 69 68 68
43 43 44 45 46 48 49 51 52 53 55 56 57 58 59 61 62 64 66 68 69 70 70 69 69 69 69 70 70 70 69 69 69 67 65 64 64 63
43 44 45 46 47 49 51 52 54 56 58 58 59 60 61 64 65 66 67 69 70 70 70 70 70 70 70 70 69 69 68 66 64 62 61 60 60 59
43 44 45 47 49 50 52 54 56 58 59 60 61 62 64 65 67 67 68 69 70 71 70 71 70 70 69 68 67 66 64 61 59 57 55 54 53 53
43 45 47 48 50 52 54 56 57 59 60 62 63 64 65 67 67 69 69 69 69 69 69 69 68 67 67 65 63 60 57 55 53 51 50 49 48 47
44 46 48 50 52 53 55 57 58 60 62 63 64 66 67 67 68 69 69 69 67 66 66 64 65 63 62 60 58 54 52 50 48 47 45 44 43 41
45 47 49 51 53 54 55 57 60 62 63 65 66 67 67 67 68 68 68 67 66 65 64 62 61 59 58 56 53 50 48 46 44 42 40 38 36 35
46 48 50 52 53 55 56 58 60 62 64 65 66 66 66 67 67 67 67 66 65 65 64 60 57 55 53 50 48 46 44 42 39 37 35 33 31 29
47 49 51 52 54 56 57 59 61 63 64 65 65 65 66 66 67 67 67 66 64 62 60 58 54 50 47 46 45 42 39 36 33 31 28 27 25 24
48 50 51 53 55 57 59 61 62 63 63 63 63 64 65 66 66 67 67 65 62 58 56 53 50 46 41 41 40 37 33 30 28 26 24 23 22 21
49 50 52 54 56 58 60 61 62 62 62 62 63 64 64 64 65 65 64 61 58 55 52 48 44 41 39 36 34 31 28 26 24 23 22 21 20 18
49 50 52 54 57 59 60 61 62 62 61 62 62 63 63 63 63 62 59 57 54 51 47 43 40 38 35 32 29 26 25 23 21 20 19 18 17 16
49 51 53 56 58 59 60 61 60 60 61 61 61 62 62 61 60 58 55 52 49 46 42 39 36 34 31 28 26 23 22 21 19 18 17 16 15 15
50 52 55 57 58 59 59 59 59 59 60 60 61 61 60 59 56 53 49 46 44 41 39 36 33 30 27 25 23 21 20 19 17 16 15 14 13 13
51 53 55 56 57 58 58 58 58 59 60 60 60 59 58 55 51 48 45 42 40 38 36 33 30 27 25 23 21 21 19 16 15 14 13 13 11 11
52 54 55 56 56 57 57 58 58 59 60 60 58 56 53 50 46 44 42 40 37 35 33 29 26 24 23 22 20 18 16 14 13 12 11 11 10 9
53 54 54 55 56 57 57 58 58 59 59 57 54 50 48 45 43 41 39 37 35 32 29 25 23 22 21 20 18 16 14 13 11 10 10 9 8 7
53 54 54 55 55 56 57 57 57 57 55 52 48 45 44 42 40 38 36 34 32 29 25 23 21 20 19 17 16 14 13 11 9 9 8 8 7 6
53 53 54 55 56 56 56 56 55 53 51 48 45 43 42 41 38 35 33 32 29 25 22 21 19 18 17 16 14 12 11 10 8 8 8 7 6 6
53 54 54 55 56 55 55 54 52 49 47 44 42 41 40 38 36 33 31 29 26 22 20 19 17 16 15 14 12 10 9 8 7 7 6 6 6 6
53 54 54 55 55 55 53 51 48 46 44 42 41 40 38 36 34 32 29 26 22 20 18 17 16 15 13 12 10 9 8 7 6 5 5 5 5 5

GEFSNE_500_meanwind_132.txt.gz
Wind_Speed
38 39 39 40 41 41 43 44 45 45 45 46 47 49 51 51 52 54 55 56 57 57 58 59 60 61 63 64 66 67 67 67 67 67 67 68 68 68
38 39 40 41 41 42 43 44 45 46 47 48 49 51 52 54 55 56 57 58 58 59 60 61 63 64 65 67 67 67 67 67 67 68 68 68 67 66
39 40 41 41 42 43 44 45 46 47 48 49 51 53 54 55 56 57 58 59 60 61 62 64 65 66 67 67 66 66 66 66 66 66 66 64 64 63
39 40 41 41 42 44 45 46 47 48 50 51 53 54 55 57 58 59 60 61 62 63 64 65 66 67 67 66 66 66 65 65 65 64 63 62 60 60
39 40 41 42 43 44 45 46 48 50 52 53 54 56 57 59 60 61 62 63 64 65 65 65 66 66 65 65 66 65 65 64 62 61 60 58 57 55
39 40 41 42 43 44 46 47 49 51 53 54 56 57 59 61 62 63 63 64 64 64 64 65 65 65 65 65 65 64 63 61 59 58 57 54 51 48
39 40 41 42 43 45 47 49 51 53 54 56 57 59 61 62 63 63 64 64 63 64 64 64 64 65 65 64 64 62 59 57 56 54 51 47 45 43
39 40 41 43 44 46 48 50 52 54 56 57 59 60 62 63 63 63 64 63 62 62 62 62 64 64 63 63 61 58 55 53 51 48 45 42 40 39
40 41 42 43 45 47 49 51 53 55 57 59 60 61 62 62 62 62 61 61 61 61 62 62 62 62 61 59 56 53 50 48 45 42 40 38 37 36
40 41 43 44 46 48 50 52 54 56 58 59 60 61 61 61 61 60 60 60 61 62 62 62 61 60 57 55 51 49 46 43 41 39 37 35 33 31
40 42 43 44 47 49 50 52 55 57 58 58 58 59 59 59 60 60 60 61 62 62 62 61 58 55 53 50 48 44 41 38 36 34 32 30 28 26
40 42 43 45 47 49 51 53 55 56 56 56 57 58 58 58 59 61 61 61 61 60 59 56 53 50 47 46 43 39 36 33 32 30 29 26 24 22
40 42 44 46 48 50 52 53 54 55 55 56 57 57 57 58 60 60 60 60 59 57 54 51 48 46 44 41 37 34 31 30 29 27 25 23 21 20
40 42 44 46 48 50 52 53 54 54 55 56 56 57 57 58 59 59 58 57 55 52 49 47 45 42 40 36 33 31 30 29 27 24 22 20 19 19
41 43 45 47 49 51 52 53 53 54 55 55 56 57 58 58 58 57 55 53 51 48 46 44 42 39 36 33 31 30 28 27 24 21 20 19 18 17
41 43 45 47 49 51 51 52 53 54 54 55 56 57 58 57 56 54 52 49 47 45 43 41 39 36 33 31 30 29 27 24 21 19 18 18 17 15
41 43 46 48 50 50 51 52 53 54 54 55 56 57 56 55 53 50 48 46 45 43 41 39 36 33 32 31 29 27 24 21 19 17 17 17 15 13
42 44 46 48 49 50 52 52 53 53 54 55 56 56 54 52 49 47 45 44 42 41 39 36 34 33 31 29 27 23 20 18 17 16 16 15 14 12
43 44 46 48 49 50 52 52 53 53 54 55 55 54 51 48 46 45 43 42 40 38 36 34 33 31 29 26 23 20 18 17 16 15 14 13 13 12
43 45 47 48 49 50 52 52 53 54 54 54 53 51 48 45 44 42 41 40 38 36 34 32 30 28 25 22 19 18 16 16 15 14 13 13 13 12
44 46 48 48 49 51 52 52 53 54 53 52 49 47 44 42 41 40 39 38 37 34 31 29 27 25 22 19 17 16 15 15 14 13 13 12 12 11
45 47 48 48 49 51 52 52 53 52 50 48 46 43 41 40 39 38 37 36 34 31 29 26 24 20 18 17 16 15 15 14 13 12 11 11 10 9
45 47 48 48 49 51 51 51 51 49 47 45 42 40 39 38 37 36 35 33 30 28 26 22 19 16 15 15 14 14 13 13 11 11 10 9 9 8

GEFSNE_500_meanwind_138.txt.gz
Wind_Speed
37 38 39 39 40 41 42 43 43 43 43 44 46 47 49 50 52 54 56 57 59 61 61 62 62 63 63 63 64 64 65 64 64 64 64 64 65 65
38 38 39 40 41 42 43 43 44 45 45 45 47 49 51 52 54 56 58 59 62 63 63 63 63 63 64 64 64 64 64 64 64 64 64 65 64 63
38 39 40 41 41 42 43 44 45 46 46 47 49 51 52 54 56 58 60 62 63 63 63 63 63 63 64 64 64 63 63 63 63 63 63 62 61 60
39 39 40 41 42 43 43 44 45 46 47 48 50 52 54 56 58 60 61 62 62 63 63 63 63 63 63 63 63 62 62 61 62 61 60 59 58 57
39 39 40 41 42 43 44 45 46 47 48 50 51 53 56 58 59 60 61 61 62 62 62 62 62 62 62 63 62 61 61 61 60 58 56 55 54 53
38 39 40 41 42 43 44 45 46 47 50 51 53 55 57 58 59 60 60 61 60 60 61 61 62 62 62 61 60 59 59 58 56 54 52 52 51 49
38 40 41 41 42 43 44 45 46 49 51 53 55 56 58 58 59 59 60 59 59 60 60 61 61 60 60 59 59 58 56 55 53 51 49 48 45 43
39 40 41 41 42 43 44 45 48 50 52 54 55 57 58 58 59 59 59 59 59 60 60 60 60 59 59 58 57 56 54 52 50 48 46 43 40 37
39 39 40 41 42 43 45 46 48 51 53 55 56 57 57 58 59 58 58 59 60 60 60 59 59 58 57 57 55 53 51 49 46 43 40 38 36 34
38 38 40 41 42 44 45 47 49 51 53 54 56 57 58 58 58 58 58 59 61 62 61 59 57 56 55 55 53 51 48 44 42 39 37 36 34 32
37 38 39 41 42 43 46 48 50 52 53 54 55 57 58 58 58 58 59 60 60 61 60 58 56 55 54 53 50 47 44 41 40 37 36 34 32 30
37 38 39 41 42 44 46 48 50 51 52 54 55 57 57 57 58 59 60 61 61 59 58 57 55 53 51 49 46 43 41 39 37 36 34 32 30 29
37 38 39 41 43 45 47 48 50 51 52 54 55 56 56 56 58 59 61 61 60 58 57 54 52 51 49 45 42 40 38 37 36 35 33 31 29 26
36 38 39 41 43 45 47 48 50 51 53 54 55 55 55 56 57 59 60 60 58 56 54 51 49 48 45 41 39 38 37 36 34 33 31 29 27 24
36 37 39 41 43 45 47 48 50 51 53 54 54 54 55 56 57 58 59 57 55 53 50 48 46 44 42 39 37 36 34 33 32 31 29 26 24 22
36 37 39 41 43 45 47 48 50 51 52 52 53 53 54 55 57 57 56 54 52 49 46 44 42 41 39 38 36 34 32 31 30 28 25 23 21 21
35 37 39 41 43 44 46 48 50 51 51 52 52 52 54 54 55 55 53 50 48 45 43 41 40 39 37 36 35 33 31 30 27 24 22 21 21 20
35 37 39 40 43 45 47 49 50 50 50 50 51 52 52 53 53 52 50 47 45 42 40 39 38 37 36 35 33 31 30 28 24 22 21 21 21 20
35 37 39 41 43 45 47 49 49 49 49 49 50 51 51 51 51 50 47 45 42 40 38 37 36 34 33 32 31 29 27 25 23 21 21 20 20 19
35 37 39 41 43 45 47 48 48 48 48 49 50 50 50 49 49 48 46 43 39 37 35 34 34 32 31 29 28 27 25 23 21 21 21 21 20 19
36 38 40 42 44 45 47 48 47 47 48 48 49 49 49 48 47 46 43 40 36 35 33 33 32 30 29 28 27 26 24 22 21 20 20 20 19 17
36 38 40 42 44 46 47 47 46 46 47 48 48 48 48 47 46 44 40 37 34 33 32 31 30 29 27 26 25 24 23 22 21 19 19 18 17 15
36 38 40 42 44 46 47 46 45 46 47 47 47 47 46 46 44 41 37 35 33 32 30 29 28 27 26 25 23 22 21 21 20 19 19 18 17 15

GEFSNE_500_meanwind_144.txt.gz
Wind_Speed
34 34 35 36 36 37 38 39 41 41 41 43 44 45 46 48 50 51 53 55 56 57 58 59 61 62 63 64 63 63 62 61 61 60 59 58 57 56
35 35 35 36 37 38 39 40 41 42 42 43 45 46 47 49 51 53 55 56 57 58 59 61 62 63 64 63 62 62 61 60 60 59 58 57 57 56
35 36 36 37 37 38 40 41 42 43 43 44 45 47 48 50 52 54 55 57 59 60 61 62 63 63 62 62 62 61 61 60 60 58 58 58 58 57
36 36 36 37 38 39 40 41 42 43 44 44 46 48 49 51 53 55 57 58 60 61 62 63 63 62 61 61 61 61 60 59 58 58 58 58 57 55
36 36 37 37 38 40 41 42 43 44 44 45 46 48 50 52 54 56 58 60 61 62 63 63 62 61 61 61 61 60 59 58 57 57 57 56 53 51
36 37 37 38 39 40 41 42 43 43 45 46 47 49 51 54 55 57 59 60 61 62 61 61 60 60 60 60 59 58 57 56 56 56 55 52 49 46
36 37 37 38 39 40 40 41 42 43 45 46 47 50 52 55 56 58 59 59 60 60 59 59 59 59 58 58 58 56 55 55 55 53 51 48 46 43
36 36 37 38 39 39 40 41 42 44 45 47 48 51 53 55 56 57 58 59 59 58 57 57 57 57 57 57 56 55 54 54 53 51 48 45 43 41
36 36 37 37 38 39 40 41 42 44 45 47 50 52 53 54 56 57 57 58 57 56 55 55 56 56 56 55 54 53 53 51 50 47 44 42 40 38
35 36 36 36 38 39 39 41 42 44 46 48 50 52 53 54 55 56 56 56 55 54 54 54 55 55 54 54 53 52 50 48 46 43 40 39 37 36
35 35 35 36 37 38 39 41 42 44 46 48 50 52 53 55 55 55 54 54 53 53 53 54 54 54 53 52 52 50 47 45 42 40 38 36 34 33
34 34 35 36 37 38 39 40 41 43 46 49 51 52 53 54 53 53 53 52 52 52 53 53 53 53 52 51 50 47 45 42 40 37 35 34 32 32
33 34 34 35 36 37 38 39 41 44 47 49 50 51 52 52 52 52 52 52 52 52 52 52 52 52 51 49 47 45 43 40 38 36 34 33 31 31
33 33 34 34 35 37 38 39 42 44 47 49 50 50 51 51 51 51 52 52 52 52 52 52 52 51 49 47 44 42 40 37 35 34 32 32 31 30
32 33 33 34 35 36 38 40 42 45 47 48 48 48 49 50 51 51 52 52 51 51 51 52 52 50 47 44 41 38 36 35 34 32 31 31 29 28
32 32 33 34 35 36 38 40 42 45 46 47 47 48 49 50 50 51 51 51 51 51 52 51 50 48 45 42 39 36 34 32 32 31 30 29 27 26
32 33 33 33 34 35 37 40 42 44 46 46 46 48 49 50 50 50 50 50 50 51 51 51 49 45 42 39 36 35 33 32 31 29 28 27 26 25
31 31 31 32 33 35 38 40 42 44 45 45 46 47 49 50 50 50 50 49 49 50 50 48 46 43 40 37 34 33 32 31 30 29 28 26 25 24
29 29 30 32 34 36 38 40 42 44 45 45 46 48 49 50 50 49 49 49 50 49 47 44 42 39 36 34 33 31 30 30 29 28 27 25 24 22
28 29 30 32 34 35 38 40 42 43 44 45 46 48 49 49 49 48 48 49 49 47 44 42 39 36 34 32 31 30 29 28 27 27 26 25 23 20
28 29 30 32 34 36 38 40 41 43 44 45 46 48 49 49 48 47 47 48 46 44 42 40 37 35 32 30 29 29 27 26 25 25 25 23 21 19
28 29 30 32 34 36 38 40 41 43 44 45 46 47 48 48 46 46 46 45 44 42 40 38 35 33 30 29 27 27 26 25 25 24 22 20 18 17
28 29 31 32 34 36 38 39 41 43 44 45 46 47 47 46 45 45 44 43 41 40 38 36 33 31 29 27 26 25 25 24 23 23 21 18 17 16

GEFSNE_500_meanwind_150.txt.gz
Wind_Speed
32 33 33 34 35 36 37 37 38 38 39 40 42 43 45 46 48 49 51 52 54 56 56 58 60 61 62 62 62 61 60 59 59 58 57 56 55 54
33 33 34 34 36 37 38 38 39 39 39 41 43 44 46 47 49 50 51 53 55 56 57 59 61 61 62 62 61 59 58 58 57 56 56 55 54 53
34 34 34 35 36 37 38 38 39 40 40 41 43 45 46 48 49 50 52 54 56 57 58 60 61 61 61 61 59 58 58 57 56 56 56 55 54 53
34 34 34 36 37 38 38 39 39 40 41 42 44 45 47 48 49 51 53 55 56 57 59 60 60 61 60 59 58 58 57 56 56 56 56 55 53 51
34 34 35 37 37 38 38 38 40 41 42 43 44 46 47 48 49 51 54 56 56 58 59 59 60 60 59 58 58 57 57 57 57 56 55 54 52 50
35 35 36 37 37 37 38 39 40 41 42 43 44 46 47 49 49 52 54 55 56 57 58 59 59 59 59 58 58 57 57 57 57 56 55 53 51 49
35 35 36 37 37 38 38 39 40 41 42 43 45 46 47 49 50 53 53 54 55 57 58 59 59 59 58 58 57 57 57 57 56 55 54 52 49 47
35 36 37 37 37 38 39 40 41 42 43 44 45 46 48 49 51 52 53 54 55 57 57 58 58 58 57 57 57 57 57 57 55 53 52 49 46 44
36 36 36 36 37 38 39 40 41 41 42 43 45 46 48 49 51 52 53 55 56 57 57 57 58 57 56 56 56 57 57 56 54 51 49 46 44 42
35 36 36 36 37 38 39 40 41 41 42 43 45 46 48 50 51 52 53 55 56 57 57 57 57 56 56 56 57 57 56 54 52 49 46 44 42 40
35 36 36 37 38 38 39 40 40 41 42 42 44 46 48 49 50 52 53 55 55 56 57 57 56 55 56 57 57 56 54 52 49 46 44 42 40 39
36 36 36 36 37 38 39 40 40 40 41 43 44 46 47 49 50 52 53 54 54 55 57 56 55 55 55 56 56 54 52 49 46 43 41 40 38 37
36 36 36 37 37 38 38 38 39 39 41 42 44 46 47 48 50 51 53 53 54 56 56 56 55 55 55 54 52 51 48 45 43 41 40 38 36 35
35 35 34 35 36 37 37 37 38 39 40 42 44 45 47 48 49 51 52 53 54 55 56 55 54 54 53 51 49 47 46 43 41 40 38 37 35 33
34 34 34 34 35 35 35 36 37 38 40 42 44 45 47 48 50 51 52 53 55 55 55 54 53 53 51 49 46 45 42 41 39 38 37 35 34 32
33 33 33 33 34 34 35 36 37 38 40 42 44 46 47 48 49 50 51 53 55 55 55 53 52 51 49 48 46 43 41 39 38 37 36 34 33 31
32 32 32 32 33 34 34 35 36 38 40 42 44 45 46 48 49 50 52 53 53 53 53 52 51 50 49 47 44 41 39 38 36 36 34 33 31 29
31 31 32 32 32 33 33 35 36 38 40 42 43 45 46 47 49 50 52 52 52 52 51 49 48 48 47 45 42 39 37 36 35 34 32 30 29 28
31 31 31 31 32 33 33 35 36 38 40 42 44 44 45 47 49 50 51 51 51 51 49 47 46 45 43 42 40 38 36 34 33 32 31 29 28 27
30 31 31 31 31 32 33 35 37 39 40 41 42 44 45 47 49 50 51 50 50 50 48 46 45 43 41 39 37 36 34 32 31 30 29 28 28 26
30 30 30 30 31 32 34 35 37 38 39 40 42 44 45 48 49 50 50 49 49 47 46 45 44 42 40 37 35 34 33 31 29 27 26 26 26 25
29 28 29 30 30 32 33 34 35 37 39 40 42 43 45 47 48 49 48 48 47 45 44 43 42 40 37 35 34 32 31 29 28 25 24 24 23 22
28 28 28 29 29 30 31 33 34 37 39 40 41 43 45 47 47 47 48 47 45 43 42 41 40 37 35 34 32 31 29 27 25 24 23 21 20 20

GEFSNE_500_meanwind_156.txt.gz
Wind_Speed
36 35 34 34 34 35 34 34 35 35 36 37 38 39 41 41 42 44 45 47 49 50 52 53 55 56 57 57 58 59 59 59 58 58 57 57 57 57
36 35 35 35 35 35 35 35 35 36 37 38 39 40 40 42 43 45 46 47 49 51 52 54 55 56 57 58 58 59 58 58 58 57 57 57 57 57
37 36 36 36 35 35 35 35 36 37 37 38 39 40 41 42 44 45 47 48 50 51 53 55 55 56 57 58 58 58 58 58 58 57 57 57 57 56
37 36 36 36 35 35 35 35 36 37 37 38 39 40 41 43 45 46 47 49 50 52 54 55 55 56 57 58 58 58 58 58 57 57 58 57 56 54
37 37 36 36 35 35 35 36 37 37 38 39 40 40 42 43 45 46 47 49 51 53 54 55 55 57 58 58 58 58 58 58 58 57 57 56 54 52
38 37 37 36 36 36 36 37 37 38 38 39 40 41 42 43 45 46 48 50 52 54 54 55 56 57 58 58 58 58 58 58 57 57 55 53 51 49
37 37 36 36 36 36 37 37 37 37 38 39 39 40 42 44 45 47 49 51 52 53 54 55 56 57 57 57 57 58 58 58 57 56 53 51 49 47
37 37 37 37 36 36 37 36 36 37 38 38 39 41 42 44 46 47 49 51 52 53 54 55 56 57 58 57 57 58 57 57 56 54 51 49 47 45
37 37 36 36 36 36 36 36 36 37 38 39 40 41 43 45 46 48 50 51 52 52 54 55 57 57 57 57 57 57 57 55 53 51 49 47 46 44
37 36 36 35 35 35 35 35 36 37 38 38 40 42 44 45 46 48 50 51 51 53 54 55 56 57 57 57 57 57 55 53 51 48 47 46 45 42
37 36 35 35 34 35 35 35 36 36 37 39 41 43 44 45 46 47 49 50 51 52 54 55 55 57 57 57 57 56 53 50 48 46 45 44 43 41
38 37 35 35 35 34 34 35 35 36 38 40 42 42 43 44 46 47 49 49 50 52 53 55 55 56 56 56 55 53 50 48 47 45 44 43 41 39
38 36 36 35 35 34 34 35 36 37 39 40 41 41 42 44 46 47 48 49 51 52 53 54 55 55 55 53 52 50 48 46 45 44 43 41 39 37
37 36 35 35 35 35 35 35 36 37 38 39 40 41 42 44 45 46 47 49 51 52 53 54 54 54 53 51 49 47 46 45 43 42 41 39 38 36
37 37 36 35 35 35 35 35 35 36 37 38 39 40 42 43 44 45 47 49 51 52 53 54 54 53 51 49 46 45 44 43 41 40 39 37 35 33
37 36 35 35 35 35 35 35 35 35 36 37 38 40 42 43 44 45 47 49 51 52 54 53 52 51 49 46 45 43 41 40 38 38 36 34 32 30
35 34 34 34 34 34 34 33 34 35 36 37 38 40 41 42 43 44 46 49 51 52 53 52 50 48 46 44 42 40 38 38 36 35 33 31 30 29
33 33 33 33 33 33 33 32 33 33 34 36 38 39 40 41 42 44 47 49 51 51 51 49 47 45 44 42 39 37 36 35 34 33 31 30 29 28
32 32 32 32 32 31 31 31 31 32 33 35 37 38 39 40 41 44 47 49 50 50 48 46 43 42 41 38 36 34 34 33 32 31 30 29 28 27
29 29 29 28 28 28 28 29 30 31 33 34 36 37 38 39 41 44 46 47 48 47 45 43 40 39 37 35 33 32 32 31 31 30 29 27 27 26
28 26 25 25 26 26 27 28 29 30 32 34 35 36 37 39 41 44 45 46 46 45 42 40 38 37 35 33 31 31 31 30 30 28 27 26 25 24
27 26 25 25 25 26 27 27 29 30 31 33 34 35 36 38 41 43 44 44 44 42 39 37 35 34 33 31 30 30 30 30 29 27 25 24 22 20
26 25 25 25 25 25 26 27 28 29 31 32 33 34 36 38 40 42 43 43 42 39 36 34 32 32 30 29 29 30 29 28 27 25 23 21 20 19

GEFSNE_500_meanwind_162.txt.gz
Wind_Speed
40 38 37 36 35 36 35 35 36 36 36 37 37 38 39 40 41 43 44 45 46 47 49 50 52 54 56 58 60 61 61 61 61 62 62 61 61 60
40 38 37 37 36 36 36 36 36 37 37 37 38 39 40 41 42 43 44 45 47 48 49 51 53 55 57 59 60 61 61 62 62 62 62 61 61 58
39 38 37 37 37 36 36 37 37 37 37 37 38 39 40 41 41 43 44 45 47 48 50 52 54 56 58 59 60 61 61 62 62 62 62 61 59 57
39 38 38 38 37 36 37 37 36 36 37 38 38 38 39 40 42 43 44 45 46 48 51 52 54 57 58 59 60 61 62 62 62 62 62 60 58 55
39 38 38 37 37 36 36 36 36 36 37 37 38 38 40 41 42 43 44 45 47 49 51 53 55 57 58 59 61 62 62 62 62 62 60 58 56 54
39 38 38 37 37 36 36 36 36 36 37 37 37 38 40 41 42 42 44 46 47 50 52 54 56 57 58 60 61 62 61 61 62 61 59 56 54 52
39 38 38 37 37 36 35 35 36 36 36 37 38 38 39 40 41 42 44 46 48 50 52 54 56 57 58 60 61 62 61 62 61 60 57 54 52 50
39 38 37 36 35 34 34 35 36 36 36 37 37 38 39 39 41 43 45 46 48 50 52 54 55 57 59 61 62 62 62 61 60 57 54 51 50 49
38 37 36 34 34 34 35 36 36 35 36 37 37 38 39 40 42 44 46 47 49 51 52 53 55 58 60 62 62 62 61 60 58 54 51 49 48 47
38 37 36 35 34 34 34 35 35 35 35 36 36 38 39 40 42 44 45 47 50 51 52 53 55 58 61 61 61 61 59 57 54 50 48 47 45 45
36 36 35 35 34 34 34 33 33 34 34 34 36 38 39 41 42 44 46 48 49 50 51 53 55 58 60 60 60 58 56 53 49 47 45 44 44 43
36 35 34 34 34 33 33 32 32 33 33 34 36 37 39 40 42 43 45 47 48 49 50 53 56 58 58 58 57 54 51 48 46 44 43 42 42 40
35 34 33 33 33 32 31 32 32 32 32 34 36 37 39 40 41 43 45 46 47 48 51 54 56 57 57 55 52 50 47 45 44 42 41 41 39 37
35 34 33 33 33 32 32 32 32 32 33 34 35 37 38 40 41 43 44 45 46 49 52 54 55 55 54 51 48 47 46 44 42 40 39 38 37 36
35 34 33 32 33 33 32 32 31 32 32 33 35 37 38 40 41 42 43 44 46 49 52 53 54 53 51 48 45 44 43 41 40 38 37 36 35 34
35 34 33 33 32 32 31 30 30 31 32 33 34 36 38 39 40 41 41 43 46 49 52 52 52 50 48 46 45 43 41 39 38 36 34 34 34 33
34 33 32 31 30 30 29 30 30 31 31 32 34 36 36 37 38 38 40 43 46 49 50 50 49 47 46 44 43 42 40 38 36 33 33 33 33 32
32 31 30 28 27 27 28 28 29 30 30 32 34 35 36 36 36 38 40 43 46 48 48 47 46 45 44 42 41 40 38 36 33 32 32 32 31 30
32 31 29 28 26 27 28 28 29 29 30 32 33 34 34 34 35 37 40 42 44 46 45 44 43 42 41 40 39 38 35 33 31 31 30 30 29 28
32 31 30 29 27 27 27 28 28 29 30 31 32 32 33 33 34 37 39 41 42 43 43 42 41 40 38 37 37 36 33 30 29 30 29 29 28 28
30 30 29 28 27 27 27 27 28 28 29 30 30 30 31 32 33 36 38 39 40 41 40 39 38 37 36 36 35 33 31 29 28 28 28 28 28 27
28 28 28 28 27 27 27 26 27 27 28 28 28 28 29 30 33 35 36 38 39 38 37 37 35 34 34 34 33 31 29 27 27 27 28 28 27 26
28 27 26 26 26 26 25 25 25 25 26 26 26 27 28 29 31 33 35 36 36 35 34 33 32 32 32 32 31 29 27 26 26 26 27 27 27 26

GEFSNE_500_meanwind_168.txt.gz
Wind_Speed
44 43 42 41 40 39 38 37 36 35 35 35 36 36 36 37 38 38 39 40 41 42 43 45 47 48 51 52 54 56 58 60 62 63 63 63 62 62
44 43 41 40 39 38 38 37 35 35 35 35 36 37 36 37 37 38 39 40 41 42 44 46 47 49 50 53 55 57 59 61 62 63 63 63 62 61
44 43 41 40 39 37 37 36 35 34 34 35 36 36 36 36 37 38 39 40 41 43 44 46 47 49 51 54 56 58 59 61 62 63 63 62 61 59
42 41 41 40 39 38 37 35 35 34 35 35 35 35 35 36 37 38 39 40 41 43 45 46 47 49 52 54 57 58 59 61 63 64 63 61 59 57
41 39 39 39 38 38 37 35 35 34 35 35 34 34 35 35 36 38 39 40 42 43 45 46 48 51 53 55 56 58 60 62 63 63 60 57 56 54
42 39 38 37 37 36 36 35 35 34 35 34 34 34 34 35 36 37 38 40 42 44 45 47 49 51 54 55 57 59 61 62 62 60 57 54 53 52
41 39 37 36 36 35 34 34 33 34 34 33 33 33 34 35 36 37 38 40 42 43 45 48 50 52 54 55 57 60 61 61 59 57 54 52 52 51
40 38 37 36 36 34 33 32 32 33 32 31 32 33 33 34 36 37 38 40 41 43 46 48 51 52 53 55 57 59 60 59 56 54 52 51 50 48
39 39 37 35 35 33 32 32 32 32 31 31 32 32 33 34 35 36 38 40 41 44 46 48 50 51 53 55 58 58 58 56 53 51 50 49 48 46
39 39 37 35 34 33 31 31 30 30 31 31 32 32 33 34 35 36 38 39 41 44 46 48 49 51 53 55 56 56 55 53 51 49 48 47 45 44
37 38 37 36 33 32 31 31 30 30 30 30 31 31 32 33 34 36 37 39 42 44 45 46 48 51 53 54 54 54 52 50 49 48 46 44 43 41
37 36 34 34 33 31 30 30 29 29 29 29 30 31 32 32 33 35 37 39 41 42 43 45 48 50 51 51 52 51 50 48 47 46 44 42 41 40
36 35 33 32 31 30 29 29 28 29 29 30 31 31 32 32 32 34 37 39 40 41 43 45 47 48 48 49 50 49 48 46 45 43 42 41 39 38
35 34 33 31 30 29 29 29 29 29 30 30 30 31 31 31 33 35 36 38 39 41 43 44 45 45 47 47 47 47 46 43 41 41 41 39 37 36
34 34 33 31 29 30 29 29 29 29 29 29 29 30 30 31 33 34 36 37 38 40 41 42 43 44 45 46 45 44 42 40 39 39 39 37 36 34
35 34 33 30 29 29 28 27 27 28 28 28 28 29 30 31 32 33 34 36 38 38 39 40 41 42 44 44 44 42 39 37 38 38 37 35 34 32
36 34 33 32 30 28 28 28 28 28 28 28 28 28 29 30 31 32 34 35 36 36 37 38 39 41 42 43 42 39 37 36 37 37 35 33 32 30
34 33 32 32 31 29 28 27 27 27 27 27 28 28 28 29 30 31 32 33 33 34 35 37 38 40 41 40 39 37 35 35 35 35 33 31 30 29
32 32 31 30 29 28 26 26 26 26 26 26 26 27 27 27 28 29 30 31 32 33 34 36 37 39 38 38 36 35 34 34 34 33 31 29 29 28
30 30 30 29 28 27 26 26 26 25 25 26 25 25 25 26 26 27 28 29 30 31 33 35 36 36 36 35 34 33 33 33 33 31 30 28 28 28
29 28 28 28 27 27 27 26 25 25 25 25 24 24 24 24 25 26 27 28 29 31 33 34 34 34 34 33 32 31 32 32 31 30 29 27 27 26
29 27 27 27 27 26 25 25 24 24 23 23 22 22 22 22 24 25 26 27 28 30 31 32 32 32 32 32 30 30 30 30 29 28 28 26 25 24
28 27 26 26 26 24 24 24 24 23 22 21 20 20 20 21 22 23 25 25 27 28 29 30 30 31 30 30 29 29 29 28 27 27 26 25 24 24

GEFSNE_500_meanwind_174.txt.gz
Wind_Speed
53 52 51 50 47 46 45 44 42 41 39 38 38 36 36 37 37 38 39 40 40 40 41 43 44 45 47 48 50 52 53 55 57 59 61 63 64 64
54 52 51 50 48 46 45 42 41 39 38 38 37 37 37 38 38 38 39 40 40 41 42 43 44 45 47 48 50 52 54 56 58 60 62 63 63 62
54 51 50 50 48 46 45 43 41 39 37 37 37 37 37 38 38 37 38 39 40 41 42 43 44 45 47 49 51 52 54 57 58 59 61 62 61 60
51 51 50 49 48 46 44 43 41 39 38 37 37 37 37 38 37 37 37 38 39 41 42 43 44 45 47 49 51 53 55 57 58 59 60 60 59 57
48 48 49 48 47 47 46 43 40 39 38 37 36 36 37 37 36 36 37 38 39 40 41 42 43 45 47 49 51 53 55 56 57 58 59 58 57 55
46 46 46 45 45 46 44 43 41 38 37 36 35 35 35 35 35 35 36 37 38 39 40 42 43 44 47 49 51 53 54 55 56 57 57 56 55 53
44 43 43 42 43 43 42 40 39 37 36 36 35 35 34 33 34 34 35 36 37 38 40 41 43 45 47 49 50 51 52 54 55 55 55 54 52 51
43 43 42 40 40 41 40 38 38 37 36 36 35 34 32 32 32 33 34 36 37 37 39 41 42 45 47 48 49 50 52 54 54 54 53 52 51 49
42 43 41 40 38 37 37 36 37 37 37 36 34 33 32 32 32 33 34 35 36 37 39 41 43 44 45 46 48 50 52 53 53 52 51 50 49 48
40 39 39 39 37 35 35 35 35 36 35 34 33 32 32 33 33 33 33 35 36 37 38 40 42 43 44 45 47 50 51 52 52 51 49 48 47 46
39 38 37 37 35 34 35 34 34 33 33 32 31 31 32 33 33 32 33 34 36 37 39 40 40 41 43 45 47 49 50 50 50 48 47 46 45 44
39 37 35 34 33 34 34 33 33 31 30 29 30 31 32 33 32 32 33 35 36 37 37 38 38 40 42 45 47 47 48 49 48 46 45 44 43 43
37 36 34 33 33 33 34 33 32 31 30 29 29 29 30 31 31 32 33 35 36 36 36 36 37 40 42 44 45 46 47 46 45 45 43 43 42 41
35 34 34 34 33 33 32 31 31 30 29 29 29 29 30 30 30 32 34 35 35 35 34 35 37 39 41 42 43 44 45 44 44 43 41 41 40 39
34 34 35 35 34 33 32 30 29 29 28 27 28 28 28 29 30 31 32 33 33 32 32 34 37 38 40 41 42 42 43 42 42 41 40 39 38 37
34 35 35 35 33 32 31 29 29 27 26 26 27 27 27 28 29 30 30 30 29 29 31 33 35 37 38 39 40 41 40 40 39 39 38 38 37 35
33 33 34 33 32 31 29 28 27 27 27 26 26 26 27 27 27 28 27 27 27 29 31 32 34 35 37 38 39 39 38 37 37 37 37 36 34 33
32 32 32 31 31 30 28 26 26 25 25 25 25 26 26 25 25 25 25 25 26 28 30 31 32 34 36 37 37 36 36 36 36 36 36 34 32 31
32 31 30 30 29 29 27 25 24 24 24 23 23 23 24 24 24 24 24 24 25 27 28 29 31 32 34 34 34 34 35 35 35 34 33 32 30 29
31 30 29 28 27 26 25 24 23 22 22 21 21 22 22 22 22 22 23 24 25 25 26 28 29 30 31 32 32 33 33 33 33 32 31 29 29 27
30 29 28 27 26 25 23 23 22 21 21 20 21 21 20 19 20 20 21 22 23 24 25 26 28 29 29 30 31 31 31 32 31 31 29 27 27 25
30 28 27 27 25 24 22 22 21 20 20 20 19 19 18 18 18 19 20 21 22 23 24 25 26 27 28 28 29 30 30 30 29 29 27 26 25 23
28 27 26 25 25 23 21 20 20 19 18 18 17 17 17 17 18 18 19 20 21 22 23 24 25 26 27 27 28 28 28 28 27 26 26 24 23 22

GEFSNE_500_meanwind_180.txt.gz
Wind_Speed
57 58 57 58 56 55 54 54 54 53 51 47 46 44 43 42 41 40 39 38 38 39 39 40 41 42 44 44 45 47 48 50 51 52 54 56 57 58
55 55 56 56 54 54 53 54 53 51 50 47 47 44 43 41 40 40 39 38 38 38 39 40 41 42 43 44 46 47 49 51 52 52 54 55 57 58
52 52 53 53 52 52 52 52 51 51 49 47 46 45 43 41 41 40 39 38 37 38 39 40 40 41 43 44 46 48 50 51 51 52 54 55 56 57
49 49 50 50 49 49 49 49 49 49 48 47 46 45 43 41 41 39 37 37 37 37 38 38 39 41 42 44 46 48 49 50 51 52 54 55 56 55
46 48 49 49 48 47 47 47 47 46 45 45 45 44 43 41 39 38 37 37 37 37 37 37 39 41 42 44 46 47 48 50 51 52 53 54 54 53
45 47 47 46 46 45 45 44 44 43 43 44 44 43 42 39 37 36 37 37 37 36 36 37 39 40 42 44 46 46 47 49 50 51 52 52 52 51
43 45 44 43 44 43 43 42 41 40 42 42 42 41 39 37 36 36 36 35 36 35 36 37 38 40 42 43 44 45 46 48 49 50 51 51 50 49
42 44 43 42 43 42 41 40 39 38 40 40 40 40 37 35 35 34 33 33 34 34 36 36 38 40 41 42 42 44 46 47 48 49 49 49 48 47
41 42 42 43 42 41 40 39 39 38 37 37 38 37 36 36 35 33 32 32 32 34 35 36 38 39 40 41 42 43 44 46 47 48 47 46 45 44
39 40 40 41 41 39 38 38 38 36 36 36 36 35 36 35 34 33 32 33 33 33 34 36 37 38 38 39 40 42 43 45 46 46 45 44 42 42
37 38 38 39 38 37 37 36 36 36 36 35 35 34 33 32 32 32 32 33 32 33 34 34 35 36 37 38 39 40 42 43 43 43 43 42 40 39
36 37 37 37 37 36 35 34 34 34 35 35 33 32 30 30 30 30 31 31 32 32 33 33 34 35 36 36 37 40 41 41 41 40 40 40 38 37
36 35 36 36 36 35 34 33 32 33 33 33 31 30 30 29 30 30 30 30 30 31 31 32 33 34 34 35 36 38 39 39 39 38 39 38 36 35
35 35 35 36 36 35 34 32 31 31 31 30 29 29 29 29 29 29 29 29 30 30 30 30 31 32 33 33 35 37 38 37 36 37 36 35 34 34
33 33 33 34 34 33 32 31 30 29 29 28 27 27 27 28 27 27 27 28 28 28 28 29 29 30 31 33 35 35 35 35 35 34 34 33 32 32
33 33 32 31 31 29 30 30 29 28 27 27 27 26 26 25 25 26 26 26 26 26 26 26 27 29 31 32 33 33 33 33 33 32 32 31 31 31
32 32 31 30 29 27 27 28 27 27 26 26 26 26 25 24 23 23 24 24 24 24 24 25 27 29 30 31 31 31 31 31 31 30 30 29 30 30
30 29 29 28 27 27 26 26 25 25 26 26 25 24 23 22 21 22 22 21 21 22 23 25 27 28 29 30 30 30 30 29 29 29 28 28 28 28
29 28 27 27 26 25 25 26 25 25 25 25 24 22 21 20 20 20 19 19 20 21 22 24 26 27 28 28 28 28 27 27 27 27 27 27 26 26
28 26 26 26 25 25 25 25 24 24 24 23 22 20 19 18 18 18 18 18 19 21 21 22 24 26 26 26 26 26 25 25 25 25 26 26 24 23
27 26 26 25 25 24 24 23 23 23 23 21 19 18 17 17 16 16 17 17 18 19 20 22 24 24 24 24 24 24 23 23 23 23 25 24 22 21
27 26 26 26 25 24 23 22 21 21 21 20 18 16 15 15 15 15 16 16 18 18 20 21 22 22 23 23 22 22 22 21 22 22 22 20 19 19
27 26 25 26 26 24 22 21 20 20 18 17 16 15 15 14 14 15 15 16 17 18 19 19 20 21 22 21 21 21 20 20 20 20 19 18 16 16

GEFSNE_500_meanwind_186.txt.gz
Wind_Speed
53 53 53 53 54 54 53 53 53 53 52 51 50 49 48 46 45 45 45 45 45 45 46 45 44 42 42 41 41 41 43 44 45 46 47 49 50 50
50 50 51 50 51 51 50 50 50 50 51 50 49 47 46 45 45 45 44 44 44 45 45 44 43 42 42 40 40 41 42 43 44 46 47 48 49 51
47 46 46 48 49 49 49 49 48 48 49 47 48 46 44 43 44 44 44 43 43 43 43 42 40 41 41 39 39 40 42 42 44 45 45 47 49 51
44 43 43 45 47 47 47 47 46 45 45 45 45 44 43 42 43 42 42 42 41 40 40 39 39 39 39 38 38 39 41 42 44 44 45 47 49 50
42 41 41 43 44 45 45 46 45 42 41 43 43 42 41 41 41 41 41 39 39 37 36 37 36 37 37 37 38 38 40 41 42 43 45 46 47 48
40 39 39 40 41 42 43 44 43 41 39 40 40 40 39 39 39 38 39 37 36 35 35 35 35 35 35 37 37 38 40 41 42 42 44 45 45 47
37 38 37 38 39 40 40 41 41 40 39 39 38 37 37 36 36 36 35 35 35 34 34 35 35 35 34 36 37 37 38 39 40 40 41 43 45 46
34 36 36 37 37 37 38 38 38 36 35 36 36 36 35 34 34 35 33 33 33 32 34 33 33 34 34 34 34 34 36 37 38 39 41 43 44 44
33 33 34 35 34 35 36 36 35 33 33 33 33 33 33 33 33 33 32 31 31 31 32 32 32 31 31 32 33 34 35 36 37 39 41 42 43 42
31 32 33 33 34 34 34 34 33 31 31 31 31 30 30 30 31 30 29 30 30 30 30 30 30 30 30 30 31 33 34 35 37 39 40 40 40 40
29 31 32 32 31 31 32 31 30 29 29 29 28 27 27 28 29 27 27 28 28 28 28 29 29 28 29 29 30 32 33 34 36 38 38 39 39 38
27 29 30 30 30 29 29 28 27 27 27 26 26 26 27 27 27 25 26 26 26 26 26 27 26 27 27 28 30 32 33 34 35 36 37 37 36 35
26 27 28 29 29 29 28 27 26 26 25 25 25 24 25 24 24 24 24 25 25 25 25 24 25 26 27 28 30 31 32 33 34 35 35 35 34 32
23 25 27 28 27 26 26 26 26 26 25 24 23 22 23 22 21 21 22 23 24 25 23 24 25 26 27 28 29 30 31 32 32 33 33 32 31 30
22 23 24 25 25 25 25 25 25 25 24 23 22 21 21 21 20 20 20 21 23 22 22 23 25 26 27 27 29 30 30 31 31 32 31 29 28 29
22 22 22 22 23 24 24 24 23 22 22 21 20 20 20 20 20 20 19 19 20 20 21 22 24 25 26 26 27 28 28 29 29 30 28 27 27 29
22 21 21 21 23 23 23 23 22 21 20 19 18 19 20 20 20 19 18 18 18 19 20 21 22 23 24 25 25 25 25 27 27 26 26 26 27 28
22 21 20 20 22 23 23 23 22 21 19 18 17 19 20 20 19 18 17 17 17 18 19 20 21 22 22 22 23 23 24 25 25 25 25 24 25 26
22 21 20 21 22 22 22 22 20 19 17 17 18 18 18 17 17 17 17 16 17 17 18 19 20 21 20 21 22 22 23 23 23 24 23 22 22 23
22 21 21 21 22 22 21 20 19 17 17 17 17 17 16 16 15 15 15 14 15 16 17 18 19 18 18 19 20 21 22 21 21 20 19 19 20 21
21 21 21 21 22 21 19 18 17 16 16 16 16 15 15 15 14 13 12 12 13 15 16 16 16 16 17 18 19 20 19 19 18 18 17 17 18 18
23 22 22 21 21 20 18 17 17 16 15 15 14 14 14 13 13 12 12 12 12 13 14 15 15 15 16 17 18 18 17 15 15 15 14 14 15 15
23 23 22 22 21 20 19 18 17 15 14 14 13 13 13 12 12 12 11 11 11 12 13 13 14 14 14 15 16 15 14 13 12 12 11 12 13 14

GEFSNE_500_meanwind_192.txt.gz
Wind_Speed
55 55 55 54 54 55 55 55 55 54 52 51 51 50 51 51 51 50 49 49 49 48 48 48 48 48 47 45 45 45 45 44 44 44 45 43 42 41
53 52 51 51 51 51 51 51 51 50 49 48 49 48 48 48 48 47 47 47 46 46 46 46 46 47 46 45 46 44 44 44 43 43 42 40 40 42
50 49 47 47 47 47 47 46 46 46 46 45 45 45 46 44 43 43 44 45 44 44 44 44 43 43 43 43 43 43 43 43 42 41 39 40 40 42
46 45 44 44 43 43 42 43 42 43 42 41 42 41 42 41 40 40 41 42 42 41 41 41 40 40 40 39 39 41 41 41 40 39 38 39 41 42
43 43 42 42 41 40 39 38 39 39 39 39 39 39 38 38 39 38 39 39 40 39 39 39 39 39 37 36 37 37 37 38 38 38 38 39 40 41
40 40 40 40 38 37 35 35 35 35 36 37 37 35 36 36 37 36 35 37 38 37 36 36 36 35 34 33 34 34 35 36 37 37 38 38 39 40
37 37 37 36 35 34 34 33 33 33 34 35 34 33 33 34 34 34 35 35 35 35 34 34 32 32 31 31 32 33 34 34 35 35 36 38 39 40
35 34 34 34 34 33 33 33 32 32 32 32 32 32 31 31 33 33 33 34 33 33 32 31 31 31 32 32 32 34 33 34 34 34 36 37 38 39
32 30 30 31 31 31 31 31 31 30 30 31 31 31 31 30 30 30 32 31 29 28 29 29 29 29 30 31 33 33 32 32 32 34 35 36 37 39
30 28 27 28 29 29 30 29 29 29 30 29 28 28 29 28 27 28 29 28 27 27 27 27 27 28 28 29 30 29 29 31 32 33 34 35 37 37
26 25 24 25 27 27 28 27 27 27 27 27 28 27 27 28 28 28 27 26 26 25 25 25 26 27 28 27 27 28 28 29 30 31 32 34 34 33
24 24 23 24 25 26 26 25 25 24 24 25 26 27 27 27 26 26 26 25 24 23 23 23 25 26 25 25 25 26 26 27 28 29 30 31 31 30
22 23 23 23 24 24 24 24 24 24 24 25 25 26 27 26 25 24 23 22 22 22 22 22 23 23 23 23 23 24 25 25 26 27 28 28 27 28
22 23 23 23 24 23 24 24 24 24 23 24 24 24 24 24 23 22 22 21 21 21 21 21 21 21 21 21 22 23 24 25 25 25 26 26 26 27
20 21 22 22 23 23 23 23 23 22 22 22 22 22 22 23 22 21 21 20 20 19 19 19 20 20 21 21 21 21 22 22 23 23 24 24 25 26
18 19 20 20 21 22 22 22 22 21 22 21 20 20 21 22 21 20 20 19 19 18 17 18 19 19 19 20 20 19 20 20 21 21 22 23 23 24
17 18 19 20 20 20 20 21 21 21 21 21 20 19 19 20 19 18 17 17 17 16 16 16 17 17 18 18 18 18 18 19 19 19 20 20 21 21
16 18 19 20 19 19 20 20 20 20 20 19 18 17 17 17 17 16 15 15 15 15 15 15 15 16 16 16 16 16 16 16 17 18 18 18 19 19
16 17 19 19 18 18 19 19 19 19 18 17 17 17 16 16 15 14 13 13 13 14 14 13 13 13 14 14 15 15 15 15 15 15 15 16 17 17
17 17 18 18 17 18 18 18 19 18 17 16 16 16 15 14 13 12 12 12 12 12 12 11 10 11 12 13 13 13 13 12 11 12 13 14 15 15
18 18 18 18 17 18 18 18 18 17 17 16 16 15 14 13 12 12 11 11 11 11 10 9 9 9 10 11 11 10 9 9 9 10 12 13 14 13
19 18 19 18 18 17 17 17 17 17 16 15 15 14 13 12 11 11 11 10 10 10 9 8 8 8 9 9 8 7 6 6 6 9 11 12 12 10
20 19 19 18 18 17 16 16 16 16 15 15 15 14 12 11 10 10 10 10 9 9 8 7 7 7 7 6 5 5 4 4 5 8 10 10 9 9

GEFSNE_500_meanwind_198.txt.gz
Wind_Speed
63 63 62 60 60 59 59 58 57 55 52 50 51 52 53 53 53 53 54 53 53 52 53 53 53 53 52 52 53 53 52 52 51 50 50 50 49 47
61 60 58 57 56 56 54 53 51 49 46 43 45 47 49 49 49 49 48 49 49 49 50 49 49 49 48 48 50 50 48 49 49 48 48 47 46 45
58 56 55 54 52 50 49 48 46 45 42 39 40 42 43 43 43 43 43 44 43 43 44 45 45 45 45 46 46 46 46 45 44 44 45 44 43 43
55 53 51 50 49 47 46 45 44 42 40 37 37 37 37 37 37 37 38 38 38 38 39 39 40 40 41 42 43 43 43 42 41 41 41 41 42 43
51 50 48 47 46 45 44 42 41 39 37 35 33 34 34 34 34 33 33 34 33 33 33 33 34 35 36 37 38 39 39 39 38 38 38 38 40 41
47 46 45 44 43 41 40 38 37 35 33 31 30 29 29 31 31 31 29 30 30 30 30 30 31 31 32 33 35 35 36 35 35 35 35 37 38 38
43 42 41 40 39 36 34 33 33 32 30 28 27 27 27 28 28 28 27 27 28 28 28 28 28 28 29 30 31 31 31 31 32 33 34 35 36 36
38 37 37 36 33 31 30 30 29 29 28 26 25 25 25 27 27 26 25 25 26 26 26 26 26 26 27 28 29 29 29 29 30 32 33 33 34 35
34 34 33 31 30 28 28 27 26 26 26 25 24 23 23 25 25 24 24 24 24 24 24 24 24 24 24 25 26 27 26 26 28 29 29 30 31 33
31 31 30 28 27 27 25 24 24 24 24 23 22 21 22 23 23 23 23 23 24 23 22 21 22 23 23 23 24 25 25 25 26 26 26 27 29 31
29 28 27 25 25 25 23 23 22 22 23 23 22 21 21 22 22 23 22 21 22 21 21 20 20 20 20 22 24 24 24 24 24 25 25 27 29 30
26 25 24 24 24 23 22 22 22 21 22 23 21 20 20 20 20 20 21 20 20 20 20 19 19 18 18 20 21 23 23 23 23 24 26 27 28 28
23 23 22 22 22 22 22 21 20 20 20 21 20 19 19 19 19 19 20 20 19 18 18 18 18 18 18 18 20 21 22 22 23 24 25 25 26 26
21 20 20 20 20 20 20 20 19 19 18 19 19 18 19 18 18 18 17 17 18 18 17 17 17 18 18 18 17 19 20 21 22 23 23 23 24 24
19 18 18 19 18 18 19 20 19 18 18 18 18 17 17 17 16 16 15 15 16 16 15 15 16 17 18 17 17 18 19 19 20 20 21 21 21 20
17 17 17 17 18 18 17 17 17 17 17 17 16 16 15 15 15 14 13 13 14 15 15 15 15 16 17 17 16 16 17 17 18 18 18 18 18 18
16 16 16 17 16 15 15 15 15 14 14 14 15 15 14 14 14 14 13 13 14 14 15 15 15 15 16 15 15 15 15 15 15 15 14 14 15 17
14 14 14 15 15 14 14 14 14 13 13 13 14 13 13 13 13 13 12 13 13 13 13 13 13 13 13 13 13 13 12 12 12 11 11 12 13 14
13 12 12 13 13 13 13 13 13 12 13 13 13 13 13 12 11 11 11 12 12 12 12 12 11 11 10 10 10 9 9 9 8 8 9 11 12 12
12 11 11 12 12 12 12 13 13 13 13 13 13 13 12 11 10 10 10 11 11 11 10 10 9 9 8 8 8 7 6 6 6 7 8 10 10 11
11 11 10 12 12 13 13 13 13 13 12 12 12 12 11 10 10 9 9 9 9 9 8 8 7 6 6 6 6 5 4 4 4 5 7 9 9 9
11 11 11 12 12 13 13 13 13 12 12 12 11 11 10 10 9 9 9 8 8 8 7 7 5 5 5 5 5 4 2 3 3 5 6 7 8 8
12 12 12 13 13 13 13 13 13 12 12 11 11 10 10 10 9 9 7 7 7 7 7 6 5 5 6 5 4 2 0 2 3 4 6 6 7 7

GEFSNE_500_meanwind_204.txt.gz
Wind_Speed
63 63 64 64 63 62 61 62 62 60 57 55 55 54 53 52 52 51 51 50 49 49 49 50 51 52 52 53 54 54 54 54 55 54 55 54 52 50
62 62 62 60 59 58 58 58 59 58 54 50 49 48 48 47 46 46 46 44 43 43 43 44 45 46 47 47 49 50 51 51 52 52 51 51 49 47
60 59 57 56 56 56 56 55 54 52 50 46 45 44 44 42 42 42 40 39 38 38 39 39 39 39 41 42 43 46 47 47 48 47 48 47 46 44
57 56 55 55 55 54 54 52 50 48 46 43 41 40 39 38 38 37 35 34 34 34 35 35 35 35 36 37 38 40 40 41 41 41 41 41 40 41
55 54 53 53 52 51 49 47 46 45 43 41 38 36 34 34 33 32 31 30 30 29 29 30 30 30 30 32 33 34 33 33 34 35 36 37 37 38
52 52 51 50 48 46 44 43 41 40 39 38 34 33 32 31 29 28 27 27 26 25 24 25 26 26 26 27 29 28 28 28 30 32 33 34 34 35
49 48 46 45 43 42 41 39 38 36 35 33 32 30 29 27 26 26 25 23 23 21 21 22 23 23 23 24 23 24 24 25 27 29 30 30 31 32
46 44 42 41 39 38 37 36 35 33 32 31 29 28 25 23 23 23 23 22 19 17 18 20 20 20 20 20 20 21 23 25 26 27 27 28 29 30
42 40 38 37 35 34 33 33 31 30 28 27 25 24 22 20 21 20 20 19 17 16 18 18 19 19 19 19 20 21 21 22 24 24 25 27 28 29
38 36 35 33 32 31 30 29 28 27 25 24 22 21 19 19 19 18 18 17 16 16 17 18 18 18 18 18 18 18 19 20 21 23 24 25 26 27
35 33 31 30 29 29 27 26 26 25 23 22 21 20 18 17 17 17 17 15 15 15 15 16 17 18 17 17 18 18 18 19 19 20 21 22 24 25
31 29 29 28 27 26 25 23 23 22 21 20 19 18 16 15 15 16 15 14 14 13 14 15 15 16 16 16 16 16 17 18 18 19 19 20 22 23
28 26 25 25 24 23 22 22 21 19 19 19 18 18 16 16 16 15 14 13 12 12 13 13 13 13 14 14 14 15 15 16 17 18 18 19 20 20
25 24 23 22 21 21 20 20 19 18 17 17 17 17 16 16 15 14 13 11 10 10 11 11 11 11 12 13 14 14 15 16 17 17 17 17 18 18
23 21 21 20 20 20 19 18 18 17 17 16 15 15 15 14 14 13 12 10 9 9 9 10 10 11 12 13 14 15 16 16 16 15 15 17 17 17
22 20 19 19 18 17 17 17 16 16 15 14 13 12 13 13 12 12 11 11 10 10 10 10 10 10 11 13 14 15 14 14 14 14 15 15 14 14
19 18 17 17 17 16 15 14 14 14 14 13 12 12 13 12 12 11 11 11 10 10 9 10 10 11 11 12 12 12 12 12 12 12 12 11 11 11
17 16 16 15 14 13 13 13 13 13 14 13 12 12 13 12 11 11 10 10 10 9 9 9 9 10 10 10 10 10 10 9 9 9 9 9 9 9
15 14 14 13 12 12 12 13 13 13 13 13 13 12 12 11 11 10 10 9 9 8 9 9 9 9 8 8 8 8 7 7 7 6 6 6 6 6
14 13 13 12 11 11 11 12 13 12 12 12 13 12 12 11 10 9 9 8 9 9 9 9 8 7 6 6 6 6 6 5 5 4 3 4 4 4
13 12 12 12 11 11 10 11 12 12 11 12 12 12 11 10 10 9 9 9 9 8 8 8 7 6 5 5 4 4 4 4 3 2 2 2 2 3
12 12 12 11 11 10 10 10 11 11 11 12 11 11 10 9 9 9 9 9 8 7 7 6 6 5 4 3 3 3 3 3 2 1 0 1 2 3
11 11 11 11 10 10 10 10 11 11 11 12 11 11 10 9 8 8 9 8 7 7 6 6 6 5 4 3 3 4 4 4 3 2 2 2 3 4

GEFSNE_500_meanwind_210.txt.gz
Wind_Speed
59 59 59 59 59 59 59 58 57 55 52 51 51 52 53 52 53 53 52 52 51 49 48 48 46 45 45 45 46 47 49 50 51 52 54 55 55 53
58 58 58 58 58 57 55 54 54 54 52 49 49 49 50 50 49 49 48 47 46 44 43 41 40 39 39 41 42 43 44 45 46 46 48 49 49 48
56 56 57 57 56 54 53 52 52 52 51 49 48 48 48 47 45 45 44 43 40 39 38 37 36 36 36 36 37 37 38 38 39 39 40 41 41 41
55 55 55 55 54 52 52 51 51 51 50 48 46 45 44 43 41 41 40 39 37 36 34 33 32 32 32 31 29 29 30 31 31 32 33 34 34 35
54 54 53 52 52 51 51 50 48 47 46 46 43 42 41 39 38 37 36 35 34 31 30 29 28 27 26 25 23 23 23 23 24 25 25 26 28 29
52 52 51 51 51 50 49 47 46 44 43 42 40 38 37 36 36 34 31 30 29 26 25 25 24 22 21 19 18 17 17 17 18 18 19 21 23 25
51 50 50 50 49 48 46 44 42 40 39 38 36 35 34 34 33 30 27 26 25 24 23 22 20 18 17 16 15 14 13 14 15 16 16 18 20 20
49 49 48 48 46 44 42 40 38 37 36 34 33 32 32 31 29 27 26 23 21 20 19 16 15 14 13 13 11 11 11 12 13 14 14 15 17 18
48 48 47 45 43 40 38 36 35 35 34 33 31 31 29 28 26 23 22 19 17 16 15 13 12 11 11 9 10 10 10 11 12 12 13 14 16 17
46 45 43 40 38 37 35 33 32 32 32 31 30 28 25 23 22 21 19 17 15 15 13 11 10 10 10 9 9 10 11 12 13 13 13 14 16 16
43 41 38 36 34 33 32 30 30 29 28 27 26 24 22 21 21 19 17 15 13 12 10 9 9 8 8 8 9 10 11 12 13 13 14 14 15 15
39 37 34 32 31 30 28 28 27 25 24 23 22 21 20 19 18 16 14 12 11 9 8 7 7 8 7 7 8 9 10 11 12 13 14 15 14 15
36 34 32 30 30 29 27 26 24 22 21 21 20 18 17 16 15 13 11 10 9 8 7 6 7 8 8 8 8 9 10 11 12 13 14 14 14 14
34 32 31 30 29 27 24 22 21 19 19 18 17 16 15 14 13 11 10 9 9 8 7 7 8 8 9 9 9 10 10 12 12 12 12 13 13 14
33 31 30 28 26 24 22 20 18 18 17 16 15 14 13 12 11 10 8 7 7 8 8 8 8 8 9 10 10 11 11 12 12 11 11 12 12 13
32 30 28 26 24 21 20 18 17 17 16 15 14 13 11 10 9 9 8 7 8 8 8 8 8 9 10 10 11 11 10 10 10 10 10 11 12 13
30 28 26 23 20 18 17 16 16 15 14 13 13 11 10 9 9 8 8 8 9 8 7 8 9 9 9 9 9 9 9 9 9 9 10 10 11 10
26 24 21 19 18 16 16 16 15 14 13 12 11 10 10 9 9 8 8 9 9 8 8 8 8 8 8 8 7 7 8 8 8 9 9 9 8 6
22 21 19 18 17 16 15 15 14 13 12 11 10 10 10 9 9 8 9 9 8 7 7 7 7 8 8 7 7 7 7 7 7 7 7 6 4 3
21 19 18 17 17 16 15 14 13 12 11 10 10 10 9 9 8 8 7 7 7 6 6 6 7 8 8 7 7 7 6 6 6 6 4 3 2 2
19 17 16 15 15 14 13 13 12 11 10 10 10 9 9 8 8 7 7 6 6 6 6 6 6 7 6 6 6 6 6 5 4 3 1 1 2 2
15 15 14 14 13 13 12 11 11 10 10 10 9 8 8 7 8 7 7 6 6 6 5 5 5 5 4 4 4 4 4 2 1 1 2 2 2 2
13 12 13 12 12 12 11 11 10 10 10 9 8 8 8 7 7 6 6 5 5 4 4 3 3 3 2 1 1 1 1 2 3 4 3 4 4 4

GEFSNE_500_meanwind_216.txt.gz
Wind_Speed
54 54 55 54 54 54 53 54 55 54 53 52 51 51 51 52 52 52 51 50 50 49 48 47 46 44 43 42 42 43 44 44 45 45 46 47 48 48
52 52 52 51 51 52 52 52 53 53 52 50 50 50 50 51 51 50 48 47 46 45 43 41 40 38 37 37 38 38 39 39 38 38 39 41 42 42
52 51 51 51 50 51 51 52 52 53 52 49 48 48 48 48 46 45 44 42 41 39 38 36 35 35 34 34 34 33 33 32 33 33 34 35 35 36
51 50 51 50 50 51 51 51 51 51 50 48 46 46 45 44 43 41 40 39 37 36 35 33 32 32 31 30 29 28 27 26 26 27 28 28 28 29
50 50 50 50 50 50 50 51 50 49 48 47 45 43 41 40 39 37 37 36 34 32 31 31 30 29 27 26 24 23 23 22 22 22 22 23 23 24
50 50 50 50 50 51 50 50 49 48 46 45 42 39 37 37 36 35 34 33 30 29 28 27 26 25 24 22 22 21 20 19 19 18 18 18 19 19
49 49 49 49 50 50 50 48 47 46 44 42 38 36 36 35 33 32 31 29 27 26 25 24 23 22 22 20 19 18 16 14 14 14 15 14 15 16
48 47 48 48 49 48 47 46 45 44 42 39 36 35 34 33 31 30 28 26 24 24 24 22 21 20 19 17 15 15 14 13 12 12 12 12 13 14
47 46 47 47 47 46 44 43 42 42 39 37 35 33 32 32 31 28 26 23 22 22 21 20 19 17 16 14 13 13 13 12 11 11 11 12 13 14
46 46 46 46 46 44 42 41 40 38 36 36 34 32 31 30 29 26 24 22 21 20 20 18 17 15 13 12 13 13 12 12 11 11 11 12 13 14
45 46 45 44 43 42 40 38 36 35 34 33 32 30 29 28 26 23 22 20 19 18 17 16 14 12 12 12 12 12 12 11 11 11 12 13 13 13
44 44 43 42 41 40 38 35 33 32 32 31 29 28 26 24 22 20 19 18 17 16 14 13 12 11 10 10 10 10 10 10 10 11 12 12 12 11
43 42 41 40 39 37 34 32 30 30 29 28 27 25 23 21 20 18 17 16 16 15 13 12 12 11 10 9 9 9 9 9 9 10 11 11 10 10
41 40 39 37 35 33 31 29 29 29 27 26 25 22 20 19 18 16 15 15 14 13 11 10 10 10 10 9 9 9 9 9 9 9 9 9 9 9
40 39 37 35 33 30 29 28 28 27 26 24 22 20 19 18 17 15 14 14 13 11 10 9 9 9 8 8 7 7 8 8 8 8 8 8 8 8
38 36 34 32 30 29 28 27 27 25 23 22 20 19 18 16 15 13 13 12 11 10 9 8 7 7 6 6 6 5 6 7 7 7 7 7 7 7
35 34 32 30 29 28 28 27 25 23 22 20 18 17 16 15 12 11 11 11 10 9 8 7 6 5 4 4 4 5 6 6 5 5 5 5 6 6
33 31 30 29 28 27 26 25 23 22 21 18 16 15 14 13 11 10 10 9 8 7 7 6 5 5 4 4 5 5 5 5 5 5 5 4 5 5
31 29 27 27 26 25 24 23 21 20 18 16 14 13 13 12 10 9 8 7 6 6 5 5 4 4 4 4 4 4 4 4 4 4 4 4 4 4
29 27 26 25 24 23 22 20 19 17 16 15 13 12 12 11 9 8 8 7 6 5 4 3 3 2 2 2 2 3 3 3 3 4 4 4 3 3
27 26 25 23 22 20 19 18 16 15 14 13 12 11 9 9 9 8 8 7 6 5 4 3 3 2 1 1 1 1 1 2 2 3 4 3 3 4
24 23 22 21 19 17 16 15 14 13 12 11 10 9 8 8 8 8 7 7 6 4 3 3 2 1 0 0 1 2 2 2 2 3 3 3 4 4
20 19 18 16 15 14 13 13 12 11 11 10 9 8 8 8 8 8 7 6 5 4 3 3 2 1 1 1 2 2 2 2 2 3 3 3 4 5

GEFSNE_500_meanwind_222.txt.gz
Wind_Speed
51 51 51 51 51 52 53 54 54 53 50 50 51 51 51 52 51 51 50 51 50 48 45 43 43 42 42 43 42 41 40 40 39 39 39 38 38 39
52 52 51 51 52 52 53 53 53 53 51 49 50 51 50 49 49 49 49 49 48 45 42 40 40 40 40 40 38 37 36 35 34 34 33 33 33 33
52 51 51 51 51 51 52 52 52 52 51 49 50 49 49 48 48 48 48 47 45 42 39 37 38 37 37 36 35 34 32 31 30 29 28 27 27 27
51 51 51 51 51 51 51 51 50 50 50 49 48 47 48 47 47 46 45 43 41 39 37 37 36 35 34 33 33 31 30 29 27 26 25 24 24 25
51 51 50 50 50 50 50 50 49 49 50 49 47 46 46 46 45 44 42 40 39 37 36 35 34 33 31 32 31 29 27 26 25 24 23 22 21 21
51 50 49 49 49 49 48 48 48 48 48 47 46 45 45 44 43 41 38 37 36 35 35 33 32 31 30 31 29 28 26 25 23 23 21 20 19 18
50 49 49 48 48 47 47 46 47 47 46 45 44 43 43 41 40 39 36 35 34 33 33 31 30 30 30 30 29 27 25 23 21 20 19 18 17 16
49 48 48 47 47 46 46 46 46 46 45 44 43 42 41 40 38 37 36 34 31 31 30 30 29 29 28 28 27 26 24 22 19 18 18 17 15 14
48 47 47 46 46 45 44 45 45 45 45 45 43 40 39 38 36 35 34 33 31 30 30 29 28 27 26 26 25 23 21 19 17 16 15 15 15 15
47 46 45 45 44 44 44 44 44 43 43 43 41 38 36 35 34 33 32 31 29 29 28 26 24 23 22 23 22 19 17 15 15 14 14 13 13 13
46 45 45 44 44 44 44 43 42 41 41 39 37 35 34 34 33 32 31 29 27 25 25 24 22 21 20 19 19 17 15 14 13 13 13 14 14 14
44 44 44 43 43 43 43 43 41 40 38 36 34 33 33 32 32 31 29 27 25 24 23 22 21 20 18 16 16 15 13 13 12 12 13 13 13 13
43 43 43 43 43 42 42 40 39 38 35 33 32 31 31 30 30 29 27 25 24 22 21 20 19 17 16 15 15 14 13 12 11 11 12 12 11 11
42 41 41 41 41 41 40 38 37 35 33 32 31 30 29 29 28 27 26 24 22 20 19 19 17 15 14 13 13 12 11 10 10 10 10 10 10 10
41 41 40 39 39 39 38 36 35 33 31 30 30 29 28 27 26 25 24 22 20 18 17 16 15 13 12 11 10 10 9 10 9 9 9 9 9 9
39 38 37 37 38 37 36 34 33 31 30 29 29 28 27 26 25 23 22 20 18 16 15 14 12 10 10 10 9 9 9 8 7 7 7 8 7 6
37 36 36 36 36 35 34 32 31 30 29 28 28 27 25 24 23 22 20 17 16 14 12 10 9 9 8 8 8 8 7 6 5 5 6 6 6 5
36 35 35 35 34 33 32 31 30 29 28 27 26 24 23 22 20 19 17 15 14 11 10 9 7 6 6 6 5 5 4 4 4 4 5 5 5 4
35 34 34 33 32 31 30 29 28 27 26 25 24 23 21 19 18 16 15 13 11 8 7 6 4 3 3 3 2 2 3 4 4 4 4 4 4 4
33 32 31 31 30 29 28 27 27 26 24 23 21 20 18 17 15 13 11 9 7 5 3 2 2 1 1 1 2 2 4 4 4 3 3 3 4 6
31 30 30 30 29 28 26 25 23 22 20 18 17 15 13 12 11 9 7 5 3 2 1 0 1 1 2 2 2 3 3 4 4 4 4 4 5 6
30 29 28 28 26 24 22 21 18 16 15 13 11 9 8 7 6 5 4 3 2 2 2 3 3 3 3 3 3 3 4 4 5 6 6 6 6 6
28 26 25 24 22 20 18 16 14 12 10 8 6 5 4 3 2 2 3 3 4 4 5 5 5 4 4 4 5 5 6 6 7 7 7 7 7 7

GEFSNE_500_meanwind_228.txt.gz
Wind_Speed
47 47 47 48 50 50 51 51 50 48 47 48 49 49 49 49 49 48 48 48 48 48 48 47 46 44 43 43 42 41 40 38 38 37 37 36 35 35
47 47 48 49 50 50 50 50 50 49 48 48 48 47 48 47 46 47 47 48 47 48 46 45 44 43 42 41 40 38 36 35 35 35 34 33 33 32
47 48 49 50 51 50 49 49 49 49 48 47 47 47 47 47 46 47 47 47 47 47 46 44 42 41 40 38 36 34 33 32 32 32 31 31 29 29
48 49 50 51 50 49 49 49 49 49 48 47 47 46 46 46 47 47 46 46 46 44 43 42 40 38 36 34 32 31 30 30 29 29 29 28 27 28
49 50 51 51 50 49 50 49 49 48 47 47 46 46 46 46 46 45 45 45 44 43 42 40 37 35 33 31 29 29 29 29 28 28 27 26 26 26
50 51 51 50 49 50 50 48 47 47 47 47 46 46 45 46 45 44 43 43 42 40 38 35 33 32 31 29 28 28 29 28 28 27 26 24 24 23
51 51 51 50 50 49 48 47 47 47 47 47 46 45 45 45 44 43 42 40 39 36 34 33 31 30 30 29 28 28 28 28 27 25 24 23 23 22
51 51 50 49 48 47 46 47 47 46 46 45 45 44 44 44 43 42 41 38 36 34 34 31 30 29 28 27 27 26 26 26 24 23 22 21 21 20
51 50 48 47 46 45 45 46 46 46 45 44 43 43 43 42 41 40 38 36 34 33 31 29 28 27 25 24 23 23 22 21 19 19 18 18 18 18
49 48 46 45 44 44 43 44 44 44 43 43 43 42 41 40 39 37 34 33 32 31 30 28 27 24 23 22 21 21 21 20 19 17 16 16 15 15
47 46 44 43 43 43 43 42 42 42 41 42 41 40 39 39 37 35 33 32 31 29 27 27 25 23 22 22 21 21 20 19 17 15 15 13 13 13
45 44 43 43 42 42 42 41 40 41 40 39 38 38 38 36 34 33 32 31 30 27 25 26 25 23 22 21 21 20 18 17 16 15 14 14 14 14
43 41 41 41 41 40 40 40 40 40 39 38 37 36 36 34 32 32 31 30 28 25 25 25 24 23 22 20 19 17 17 17 15 14 14 14 14 13
41 40 40 40 39 39 39 39 39 39 38 36 35 34 34 32 31 31 29 27 26 24 24 24 23 22 20 18 17 16 15 14 13 12 12 13 12 11
39 39 39 39 38 38 38 38 38 37 36 34 33 32 31 31 30 28 27 26 24 23 23 23 22 20 17 15 14 14 13 11 11 10 10 10 9 8
39 38 38 38 37 37 36 36 35 34 33 31 30 30 30 29 28 26 25 25 23 22 22 21 20 17 14 12 12 11 10 9 8 8 8 8 7 6
37 36 36 35 35 34 33 32 32 31 30 29 29 28 27 26 26 24 23 22 21 20 20 18 15 13 11 9 8 8 7 6 6 6 6 6 6 6
35 34 33 32 32 31 30 29 29 29 28 27 26 25 25 24 23 22 21 20 18 17 16 14 12 10 8 7 6 5 5 5 5 5 4 4 4 4
32 31 30 29 29 28 28 27 27 27 26 25 24 23 22 21 20 19 17 16 15 14 13 11 9 7 6 4 4 4 3 4 4 3 3 3 3 3
30 29 29 28 27 27 26 26 26 25 24 22 21 20 19 18 17 15 14 13 12 11 9 7 6 5 4 2 1 1 2 2 2 2 3 4 4 4
29 28 27 27 26 26 26 25 24 23 20 19 19 18 17 15 14 13 11 11 10 8 6 4 3 2 1 1 2 2 3 3 4 5 5 6 6 6
27 26 25 25 24 24 24 23 21 18 17 17 16 15 14 13 11 11 10 9 7 5 3 2 1 2 3 4 5 5 5 5 6 6 6 7 7 7
25 25 24 23 23 22 22 21 18 16 15 14 13 13 11 10 9 8 7 6 4 2 2 2 4 4 5 6 6 6 6 7 7 7 7 8 9 9

GEFSNE_500_meanwind_234.txt.gz
Wind_Speed
45 45 46 47 48 49 50 51 52 51 49 50 51 52 51 50 49 49 48 47 48 48 47 47 47 47 46 46 46 45 43 41 40 40 38 37 36 35
45 46 47 48 49 50 51 52 53 52 51 50 50 50 49 48 48 48 47 47 47 47 47 46 46 46 45 45 44 42 40 39 38 37 35 35 33 32
46 46 47 48 50 51 52 53 53 52 51 49 49 48 47 47 47 47 46 46 46 47 45 45 44 45 45 43 41 38 37 36 36 35 34 33 31 31
46 47 48 50 51 52 53 52 52 50 50 48 47 47 46 46 47 46 45 46 46 45 44 44 44 44 43 41 37 36 35 34 33 32 32 31 29 28
47 48 50 51 52 52 52 51 49 49 48 48 47 46 46 46 46 45 46 46 45 44 44 43 42 42 41 38 36 34 34 33 32 32 31 31 29 27
48 49 50 51 51 51 50 48 48 47 47 47 47 46 46 46 45 44 44 43 43 43 43 42 41 40 39 36 35 33 32 32 31 30 28 27 26 25
48 50 50 50 50 49 48 46 47 47 47 46 46 45 45 44 44 43 42 42 42 42 40 40 39 38 36 34 33 32 31 30 30 28 26 25 23 22
48 49 49 48 48 47 46 46 46 46 46 45 45 44 44 44 43 42 42 41 40 39 38 38 37 36 34 32 31 30 29 28 27 25 24 23 21 20
48 48 48 47 47 45 45 45 45 45 44 44 44 43 43 43 43 42 41 41 40 38 38 37 36 35 33 32 29 28 27 26 24 22 21 20 19 19
48 48 46 46 45 45 44 43 43 43 43 44 43 43 43 43 42 41 41 40 39 38 37 35 33 32 32 30 27 26 26 25 22 20 19 19 18 18
46 46 45 45 44 44 43 42 42 42 43 42 43 43 42 41 40 40 39 38 37 35 33 32 30 29 28 27 25 24 23 22 20 19 19 19 19 18
45 44 44 43 42 42 41 41 41 41 41 41 42 42 41 39 38 37 36 35 34 31 30 29 28 27 25 23 22 22 21 20 19 18 18 18 17 16
44 43 43 42 40 40 41 41 40 40 40 40 40 40 38 36 35 34 33 32 31 29 28 27 26 25 24 22 21 20 20 18 17 16 16 16 14 13
43 42 41 40 39 39 40 39 39 38 38 38 37 36 35 34 33 32 31 30 29 28 27 26 24 24 22 21 19 17 17 16 15 15 14 13 12 12
40 40 39 38 37 38 38 38 37 36 36 35 34 33 32 31 30 30 29 28 27 27 27 25 23 22 20 18 17 15 15 15 15 14 13 12 10 9
39 38 37 37 36 36 36 35 35 34 33 32 32 31 30 29 28 26 25 25 25 26 25 23 22 20 18 17 15 14 14 13 12 11 10 9 8 7
38 37 36 35 34 34 33 33 33 32 31 30 29 28 27 26 25 24 24 24 24 23 22 21 20 18 16 15 13 12 11 10 9 8 7 7 7 6
35 35 34 33 32 31 30 30 29 28 28 27 26 26 25 24 23 23 23 22 22 21 20 19 18 16 15 13 11 9 9 8 7 6 6 6 6 6
33 32 31 30 29 29 28 28 26 26 26 25 25 25 23 22 22 22 21 21 21 20 19 18 15 13 11 10 8 7 7 6 6 5 5 5 5 5
30 29 29 28 27 27 26 25 25 24 24 24 24 23 22 20 20 20 20 19 19 19 17 15 12 10 9 7 6 5 6 5 5 5 5 5 5 5
28 28 27 26 25 25 25 24 23 22 22 22 22 22 20 19 19 19 19 18 17 16 14 12 10 8 7 6 5 4 4 4 4 5 5 6 6 6
27 26 25 24 24 24 23 23 22 22 22 22 22 21 19 18 18 17 16 15 14 12 11 9 7 6 5 4 3 3 3 4 5 5 6 7 7 7
26 25 24 24 23 23 23 22 22 22 22 22 21 19 18 17 16 15 14 12 11 9 8 6 5 4 3 2 3 4 5 6 6 7 7 8 8 9